GFSSGP_sfc_wetblb_000.txt.gz
Wetbulb
67.50 65.98 62.93 61.92 50.97 41.47 36.48 40.04 45.01 44.09 44.63 47.31 49.09 47.30 45.82 46.67 45.92 40.29 54.64 58.15 61.49 64.03 65.85 69.54 70.40 68.54 66.98 65.82 65.13 65.14 64.73 64.36 63.58 63.50 64.20 64.99 65.09 65.37 66.16 66.78 67.10 67.37 67.76 68.36 68.60 69.12 69.81 69.95 70.82
63.33 64.12 60.77 56.32 46.31 34.74 35.99 42.37 42.80 45.12 47.39 47.98 49.14 48.34 47.89 47.61 52.36 53.95 53.48 57.71 57.16 62.79 64.99 65.72 69.43 68.47 67.24 66.52 65.75 65.53 65.12 64.36 63.92 63.97 64.33 64.64 65.15 65.62 65.66 66.00 67.03 67.50 67.89 68.18 68.42 68.92 69.54 70.02 70.30
64.13 64.82 56.66 50.79 41.35 35.82 36.29 42.12 44.22 46.32 48.79 46.81 46.00 49.94 51.09 50.81 55.42 53.92 55.18 57.32 55.65 61.46 64.47 64.79 69.99 69.41 68.13 67.16 66.33 65.77 65.62 64.87 64.22 64.36 64.36 64.25 64.32 64.39 65.44 65.79 66.12 67.36 67.84 68.07 68.65 69.20 69.41 69.68 70.22
63.24 59.42 55.60 45.37 36.71 39.57 42.17 43.64 46.24 46.76 47.18 47.64 48.36 49.09 53.26 56.14 55.72 55.61 56.25 56.46 53.44 60.48 63.66 66.20 70.94 69.59 68.02 67.12 66.64 65.90 65.51 65.27 64.67 64.58 64.54 64.38 64.35 64.49 64.82 65.61 65.86 66.29 67.51 68.24 68.69 69.12 69.67 69.53 70.36
59.79 53.80 46.06 41.85 39.92 42.05 44.27 46.55 46.46 46.02 46.76 46.51 49.18 49.44 50.40 55.95 56.81 55.96 55.06 55.22 52.89 52.85 60.59 65.22 70.77 68.99 67.99 67.14 66.46 66.00 65.00 65.05 65.05 64.78 64.56 64.19 64.31 64.18 64.65 65.28 65.98 65.86 67.50 68.18 68.54 69.01 69.60 69.60 70.30
53.16 51.81 42.12 39.69 39.92 44.00 44.82 46.76 47.46 46.59 46.74 47.09 49.47 49.55 49.30 54.89 54.58 54.39 53.54 53.28 56.55 56.06 54.95 55.97 66.89 69.63 68.20 66.54 66.43 66.73 66.70 65.52 64.64 64.55 64.45 64.14 64.04 64.13 64.21 65.06 65.92 65.63 67.39 68.12 68.24 68.86 70.01 70.43 70.82
52.10 48.86 44.46 43.10 41.64 42.72 45.65 46.75 46.30 45.83 46.29 46.54 49.12 47.50 49.18 51.41 53.14 52.87 51.95 52.03 52.55 52.49 52.75 53.44 53.61 58.03 62.09 64.21 65.97 64.99 65.63 64.49 63.86 63.78 64.09 63.74 63.72 63.88 64.00 64.81 65.50 66.05 66.98 67.94 67.95 68.70 69.92 70.53 70.67
54.61 48.66 41.94 41.19 41.37 41.02 46.17 46.90 47.20 47.77 47.89 53.24 53.27 46.74 44.11 49.39 52.22 52.06 51.04 50.18 50.22 50.97 52.63 52.22 52.96 56.04 56.40 58.58 63.22 61.99 62.08 61.70 62.46 62.74 62.81 62.91 63.05 63.45 63.86 64.45 65.24 66.13 67.19 67.99 68.20 68.69 69.77 70.42 70.61
53.56 43.95 39.86 40.60 42.81 42.85 44.80 44.19 48.67 50.80 50.08 51.39 51.87 50.70 51.37 52.36 52.02 50.86 49.34 49.15 50.47 53.36 52.02 52.80 56.08 56.30 56.28 57.55 58.30 58.78 60.42 60.57 60.05 59.09 60.52 60.88 57.69 58.26 61.17 63.89 65.08 66.48 67.17 67.91 68.21 68.53 69.20 70.04 70.03
48.79 41.53 43.57 46.47 45.72 43.79 45.76 46.86 48.27 48.95 49.48 49.53 50.88 51.85 52.81 52.30 50.37 49.54 48.24 48.17 49.72 51.59 54.05 55.96 56.20 56.05 56.32 58.05 54.94 55.61 58.54 58.00 57.77 57.92 56.65 55.73 56.43 57.81 61.44 63.20 64.93 65.96 66.93 67.41 68.36 68.40 68.91 68.79 66.51
49.89 45.11 46.73 47.21 47.37 47.14 47.05 46.78 49.61 48.67 46.06 48.47 48.53 49.12 50.35 50.30 49.63 49.51 49.44 48.65 48.88 52.02 55.29 56.24 55.43 56.38 55.55 54.98 54.93 55.75 57.58 58.13 58.07 57.05 58.31 56.37 58.64 58.05 58.99 59.92 61.34 61.49 65.25 64.20 65.65 65.34 65.17 65.63 64.81
47.54 48.32 48.61 48.03 48.54 47.14 46.67 48.63 48.15 49.00 48.25 51.80 51.85 50.57 49.91 49.54 48.89 49.33 49.94 50.81 52.15 53.84 54.89 56.50 55.43 56.41 55.22 55.33 54.72 55.25 57.49 58.88 57.98 55.65 55.53 54.92 56.69 57.65 57.97 58.98 59.98 60.83 62.03 62.00 63.49 64.27 64.67 64.34 65.78
46.32 48.08 49.33 49.07 47.65 47.40 49.01 47.24 48.04 47.79 51.09 52.30 51.73 50.70 49.24 48.98 49.26 50.35 51.41 52.64 53.74 53.56 54.62 54.97 55.37 55.28 56.09 55.59 55.27 55.18 57.59 58.79 56.47 56.25 56.05 56.47 56.49 56.23 57.25 58.96 59.84 60.56 61.50 62.68 63.29 65.50 65.65 65.03 65.18
48.67 48.32 48.13 47.49 46.77 46.93 45.66 47.07 47.79 49.15 52.25 51.64 50.03 48.58 48.84 49.54 49.48 49.99 51.68 52.53 54.44 54.37 54.28 54.36 55.81 56.07 56.15 55.27 55.03 56.09 56.67 56.93 56.89 55.73 56.49 57.79 56.95 55.91 57.57 58.03 58.90 60.14 60.61 62.02 64.45 65.59 64.82 64.61 65.10
48.79 44.98 45.86 46.47 46.89 45.48 46.71 45.26 45.58 50.44 51.09 50.44 48.95 48.81 49.29 49.80 50.55 50.63 51.66 54.10 54.64 55.18 54.97 55.11 56.19 56.68 55.81 55.06 56.35 56.71 56.85 56.81 56.55 56.83 57.87 58.71 58.04 57.88 58.45 58.57 59.51 59.55 62.16 63.82 64.59 64.25 63.96 63.62 64.10
46.17 43.75 39.33 44.58 46.78 47.12 45.95 40.15 47.42 49.92 49.30 48.71 48.67 48.93 49.13 49.31 50.54 51.42 54.11 54.80 55.35 54.28 54.97 54.28 57.98 56.07 55.99 55.77 56.67 57.25 57.37 56.65 56.89 57.09 57.73 59.17 60.07 60.30 58.98 59.07 60.23 63.22 63.38 63.84 63.86 63.58 62.69 62.89 63.02
43.24 38.00 39.58 42.92 47.32 46.65 43.98 40.88 48.04 49.18 48.91 48.44 47.54 47.79 48.37 48.57 49.81 50.75 54.41 55.75 55.52 55.30 55.33 53.93 54.77 56.95 56.58 56.07 56.41 56.49 57.07 57.51 57.97 58.29 58.15 59.65 60.82 62.55 61.58 61.29 63.00 63.60 63.21 63.07 63.02 62.79 62.91 62.33 62.19
39.80 39.39 42.08 41.89 44.68 45.73 41.83 41.47 46.58 48.12 48.75 48.55 46.57 47.14 47.84 48.49 49.31 51.85 54.11 56.12 56.15 56.31 56.02 55.89 54.35 56.46 56.26 56.25 56.39 56.71 56.79 57.53 58.82 59.36 60.07 60.68 61.64 62.68 62.49 60.99 62.87 62.87 62.23 61.78 61.93 61.75 62.68 62.94 62.36
45.78 43.93 42.52 44.45 46.37 44.74 42.75 41.90 45.01 47.03 48.20 46.57 45.46 45.90 46.52 47.53 50.10 51.75 53.76 55.83 56.91 57.06 54.80 55.13 53.75 54.82 55.93 54.98 54.30 55.37 55.30 56.53 57.97 59.80 60.56 60.86 61.84 62.82 62.51 61.86 62.69 62.70 61.52 61.50 62.04 61.94 61.60 61.71 62.45
45.27 43.07 42.55 44.87 46.37 43.77 42.62 42.62 44.97 47.03 48.06 48.02 46.16 45.66 46.06 46.62 48.62 51.02 53.05 52.94 55.27 55.67 56.13 55.52 54.41 53.15 54.65 55.31 55.55 55.73 55.93 57.09 57.25 58.34 59.71 60.77 62.14 62.56 62.50 62.37 62.21 62.59 61.63 61.65 61.73 61.65 60.86 61.26 61.52
43.60 42.63 42.83 42.97 45.51 44.70 43.02 40.65 43.92 47.08 48.33 49.82 47.34 47.37 46.85 46.73 47.61 50.00 52.33 50.92 53.26 54.83 53.42 56.11 55.71 53.02 54.12 55.48 56.10 56.29 56.83 57.53 57.35 57.97 59.40 60.68 62.40 62.46 62.16 61.64 62.74 62.88 62.61 61.79 61.35 61.37 60.67 58.83 60.36
40.38 46.07 46.37 45.53 41.59 36.22 43.44 32.47 41.09 44.48 45.61 47.88 46.92 45.56 45.51 46.92 48.32 50.26 51.39 50.29 52.10 55.36 55.77 55.74 55.74 55.44 54.58 52.91 53.62 54.39 54.47 55.15 56.71 57.80 60.01 61.76 63.17 62.78 62.36 62.11 62.25 62.35 62.85 62.20 61.86 61.93 60.69 60.56 57.86
43.17 46.63 44.83 45.24 40.61 37.91 39.89 34.06 39.97 44.30 43.48 46.24 45.84 45.95 45.90 46.97 48.14 50.21 51.29 52.17 53.13 54.71 56.72 56.92 56.39 56.56 54.38 54.64 53.23 54.41 55.02 55.53 57.15 58.86 59.57 60.36 61.55 63.14 63.05 62.38 62.18 61.72 61.82 63.04 62.67 61.20 61.41 60.27 59.17
47.56 44.81 44.29 41.77 38.44 31.81 38.52 37.13 36.59 40.64 45.01 46.56 47.01 46.87 47.24 47.23 48.06 50.44 52.13 52.86 53.31 52.84 56.93 56.38 55.57 56.04 57.40 55.58 54.13 54.17 55.13 55.83 56.70 56.17 55.91 55.65 58.01 60.39 62.25 63.35 62.60 62.54 62.33 62.25 62.55 61.95 61.26 60.11 59.98
44.86 39.67 32.94 29.91 29.59 29.86 40.92 37.63 40.67 45.17 47.16 49.45 47.16 46.83 47.37 48.41 47.02 49.71 50.83 50.69 52.35 52.96 54.81 56.48 56.11 55.27 55.56 57.37 55.53 53.58 53.23 53.27 53.35 53.47 54.51 55.44 55.92 57.87 60.79 61.76 62.30 62.57 61.89 61.91 61.84 61.12 60.91 60.66 59.84
41.42 40.62 34.05 28.11 28.26 35.23 43.77 36.97 40.58 49.82 49.93 51.44 50.64 48.38 48.00 46.70 48.19 49.51 50.24 50.61 52.53 53.85 53.65 56.17 55.48 54.29 54.37 55.09 54.38 54.69 55.64 55.38 54.26 54.07 53.53 54.10 55.03 56.03 58.26 61.56 61.46 61.69 61.72 61.43 59.78 59.63 59.84 60.51 59.68
41.54 39.04 43.07 37.27 38.20 34.71 39.25 45.74 49.21 50.41 49.63 50.21 48.24 47.23 46.71 46.77 48.64 48.99 49.79 50.92 50.61 53.57 53.26 54.67 54.83 53.15 53.87 54.28 53.27 53.01 54.17 54.62 54.50 54.50 54.25 53.45 54.79 57.18 56.06 56.63 56.89 57.94 58.92 59.06 58.47 58.10 57.62 57.76 58.01
44.24 46.04 38.55 35.82 29.22 28.99 35.91 43.16 40.91 46.35 47.12 48.14 46.57 46.45 46.61 47.07 48.93 48.62 50.26 50.82 51.18 52.59 52.65 54.40 54.39 53.21 53.80 52.55 52.42 53.65 53.88 54.46 53.89 54.45 53.79 53.88 54.29 56.46 57.37 57.66 57.89 57.89 57.00 56.57 57.09 57.07 57.23 57.64 57.11
45.07 42.97 43.43 41.38 38.89 30.91 28.63 38.22 48.22 49.07 49.39 47.32 47.07 47.55 46.92 47.73 48.87 48.90 50.60 51.07 52.07 52.28 52.96 54.24 53.84 54.39 54.14 53.59 54.03 53.92 54.22 53.75 53.29 53.24 53.85 53.97 53.86 55.33 55.98 56.61 57.07 56.77 55.91 56.86 58.05 57.81 58.42 57.71 57.24
49.86 47.12 45.69 39.24 37.98 39.38 39.03 37.78 51.35 51.00 50.44 50.33 48.38 48.60 48.14 49.35 49.03 50.14 50.97 50.86 52.08 52.40 52.71 52.86 53.31 54.83 54.74 55.09 53.95 54.28 54.47 52.62 51.79 52.31 52.75 53.85 54.09 54.81 55.10 55.62 56.34 56.77 56.47 56.26 56.22 55.46 55.35 55.36 54.88

GFSSGP_sfc_wetblb_006.txt.gz
Wetbulb
66.97 65.65 60.79 60.21 49.13 41.61 37.14 39.83 42.33 42.02 42.94 45.08 45.80 44.38 43.59 44.23 43.46 37.22 50.73 56.32 59.50 58.01 62.72 68.52 72.68 71.18 70.23 69.81 69.04 68.02 66.61 65.92 65.43 64.90 64.14 63.69 64.40 65.38 65.94 66.64 67.09 67.32 67.65 67.38 67.49 68.36 68.21 68.63 69.78
62.58 62.13 59.61 52.80 43.99 34.52 36.65 39.74 41.41 44.03 45.09 45.34 46.32 45.25 44.36 43.90 50.75 51.29 50.96 55.97 58.93 60.41 61.94 66.92 72.43 72.13 70.71 69.87 69.42 69.40 67.21 66.57 65.92 65.44 64.43 64.09 64.59 65.31 65.89 66.00 66.13 66.48 67.32 67.77 67.47 67.70 68.05 68.42 69.38
61.59 62.70 54.81 48.13 41.02 38.67 37.02 40.66 43.44 44.37 45.59 45.34 44.10 48.56 48.33 47.83 52.56 52.42 54.29 55.74 56.02 59.47 62.33 65.65 71.99 72.06 70.94 69.66 69.13 68.82 67.15 66.84 66.59 65.91 64.80 64.46 64.79 65.17 65.24 65.57 65.99 66.41 66.59 67.28 67.60 67.70 67.98 68.22 68.95
60.60 57.92 51.75 45.56 41.91 42.63 40.98 41.99 43.41 43.64 44.77 45.19 46.29 46.21 50.48 53.93 53.50 54.22 55.25 55.25 54.41 56.94 62.04 65.24 70.53 71.20 70.01 69.23 68.76 68.59 67.73 67.11 66.59 66.25 65.39 64.76 64.82 64.85 64.84 64.86 64.97 65.41 66.20 66.59 67.54 67.76 67.95 68.24 68.73
56.39 51.46 44.80 41.46 42.96 41.18 42.08 43.31 44.29 43.86 43.43 43.63 47.15 46.30 47.59 53.05 55.23 54.04 52.44 53.59 51.18 53.17 60.55 64.08 69.19 70.03 69.81 69.22 68.77 68.93 67.65 67.94 66.70 65.38 65.17 65.05 64.87 64.87 64.75 64.84 64.82 64.95 65.38 66.23 66.58 67.89 69.03 69.42 70.01
50.74 49.67 42.80 41.04 43.44 43.58 43.42 44.36 44.96 44.13 44.02 45.35 46.81 47.02 47.12 52.23 52.26 50.45 53.72 52.59 54.99 57.77 59.08 61.20 66.52 69.12 70.28 69.07 68.56 67.91 67.67 67.02 66.61 66.34 66.15 65.17 65.03 64.93 64.85 65.10 64.76 64.49 64.76 66.14 66.36 67.56 69.10 69.82 70.46
49.38 46.75 42.95 42.78 43.63 40.71 43.66 44.90 43.71 44.00 42.88 44.30 48.70 45.07 46.37 49.12 49.21 49.76 49.07 49.33 50.60 52.89 54.15 54.46 52.98 58.46 61.81 63.36 64.29 64.60 64.63 64.58 64.72 65.01 65.36 65.31 65.22 65.11 65.03 64.86 64.60 64.47 64.59 65.71 66.53 66.97 67.79 69.21 69.74
51.62 48.58 41.49 40.89 39.99 39.67 44.39 44.03 43.32 45.32 44.82 49.80 50.64 44.29 43.04 47.28 49.29 49.17 49.49 49.85 49.16 49.93 50.71 50.36 53.27 55.00 55.56 56.11 61.60 62.61 62.97 62.99 63.44 64.18 64.47 64.44 64.41 64.75 64.91 64.70 64.56 64.24 64.69 65.79 66.31 66.67 67.70 68.63 69.30
50.44 43.76 40.53 42.55 39.54 41.56 41.93 41.19 44.94 48.27 47.72 48.56 48.61 48.20 49.04 49.63 49.73 48.87 48.34 50.01 50.38 52.94 52.60 52.75 54.57 55.18 55.93 56.82 57.61 59.54 60.59 62.05 62.03 61.22 61.55 61.03 58.53 59.40 61.76 63.40 64.03 64.43 64.74 65.58 66.29 66.64 67.63 68.09 68.25
48.12 42.29 44.12 46.92 43.49 42.93 42.99 43.28 45.85 46.83 46.95 45.96 46.72 49.15 49.97 50.09 48.55 48.25 47.99 48.74 49.62 51.45 53.24 54.00 54.10 55.23 55.73 57.18 55.85 55.21 56.39 57.50 57.73 58.54 57.81 58.07 57.44 57.89 59.49 61.72 63.50 63.75 64.55 65.61 65.80 66.93 67.72 67.67 66.75
47.02 45.39 47.48 47.94 46.26 45.45 44.11 42.93 46.43 45.92 43.85 45.94 45.05 47.33 48.23 48.37 48.07 48.49 48.79 48.64 49.67 51.62 53.90 53.65 54.02 54.90 55.02 54.79 55.58 54.46 56.27 57.75 58.88 58.35 58.20 59.01 59.13 58.57 58.84 59.53 60.64 61.03 62.90 63.27 64.96 65.69 65.70 65.30 66.23
45.11 49.25 48.69 48.64 48.66 44.80 44.37 46.22 46.92 46.31 46.57 49.59 48.27 48.85 47.93 47.61 47.53 48.28 49.19 50.18 51.46 51.53 52.73 53.34 54.57 54.37 54.42 54.69 54.90 54.50 57.37 58.57 58.28 57.24 57.74 57.51 57.77 57.79 57.01 57.75 58.79 59.91 60.97 61.58 62.50 62.51 63.88 64.97 65.33
46.53 47.64 47.67 47.37 45.30 45.90 46.64 45.55 45.98 46.70 49.42 49.86 48.64 48.62 47.66 47.24 48.29 48.95 50.63 52.27 52.54 51.75 52.84 53.29 54.94 54.74 54.95 54.81 54.88 54.78 56.73 58.03 57.78 56.39 56.45 57.39 57.33 56.31 57.19 57.85 58.77 59.59 60.76 61.36 62.01 63.34 64.13 64.49 65.15
49.18 47.11 46.70 44.92 43.82 44.71 45.11 44.74 46.17 47.51 49.50 48.07 47.78 46.93 47.34 48.13 48.62 49.35 51.43 51.25 52.13 52.75 53.06 53.25 54.52 55.18 54.99 54.35 54.81 54.84 55.50 55.26 57.09 55.64 55.93 56.93 56.21 55.81 56.87 58.09 58.61 59.11 60.60 61.66 62.28 63.32 64.24 64.66 65.38
46.92 44.51 46.24 45.93 44.53 44.27 45.65 43.07 44.44 47.99 48.26 46.42 46.39 46.66 47.35 47.99 49.26 50.37 51.88 51.71 51.69 52.35 53.44 52.53 55.42 55.23 54.89 54.39 54.94 55.34 55.98 55.97 55.57 56.21 56.95 57.49 57.53 56.91 58.34 58.15 58.19 59.52 60.50 61.81 62.43 63.35 64.23 64.41 64.74
44.54 42.42 38.98 44.22 45.60 45.94 44.66 39.69 45.45 47.89 46.85 45.25 45.92 46.35 46.93 47.58 49.25 50.80 53.57 52.44 52.58 52.04 53.25 52.52 54.38 55.08 54.86 54.69 54.89 55.75 56.63 56.99 57.31 57.45 57.61 58.36 58.93 59.30 58.84 58.33 58.59 59.96 60.50 62.10 62.77 63.29 63.55 63.36 63.68
42.69 39.53 40.25 42.91 45.48 44.38 42.90 41.44 45.23 47.21 46.87 45.04 44.86 45.76 46.57 46.74 48.66 50.71 53.81 53.39 52.90 52.50 53.52 53.33 52.88 54.51 55.02 55.43 55.89 56.49 56.95 57.43 58.24 58.76 59.05 59.82 61.12 61.13 58.84 60.04 61.02 62.37 62.39 62.67 62.80 63.13 62.79 62.89 63.53
38.61 39.16 40.98 40.87 43.94 43.29 41.06 41.53 43.88 46.77 46.60 45.48 44.59 45.47 45.87 46.80 48.34 51.09 53.50 54.19 53.57 53.38 52.70 53.42 52.74 54.39 54.76 55.79 56.23 56.69 57.15 57.51 58.19 58.72 59.80 60.48 60.96 60.91 61.69 60.66 61.47 62.96 62.15 62.86 62.59 62.48 63.32 63.10 62.85
43.42 41.32 40.93 43.75 45.65 42.83 41.90 42.07 45.11 45.29 44.62 43.89 43.55 43.90 44.76 46.06 48.70 50.88 53.05 54.10 54.42 54.41 53.17 52.84 52.17 52.81 53.31 54.90 54.78 55.13 55.55 56.77 57.73 59.20 60.37 60.60 61.31 60.71 61.57 62.10 61.70 63.21 61.98 62.47 62.84 62.78 62.20 62.05 62.52
41.88 39.85 39.37 42.37 44.34 42.14 42.02 41.45 42.95 44.47 45.01 45.24 43.79 43.48 44.34 45.40 47.38 50.28 51.85 52.86 52.77 52.54 53.93 53.54 52.94 53.29 53.74 54.56 55.05 55.07 56.29 58.12 58.72 59.68 60.50 61.35 61.65 62.13 61.88 62.50 62.15 62.49 61.91 62.28 62.49 62.05 61.38 61.67 62.31
41.32 39.30 39.47 40.35 42.31 41.68 39.58 38.11 40.35 43.57 44.29 45.49 44.24 44.95 45.06 45.38 46.33 48.46 50.24 50.49 52.40 51.35 51.68 54.29 53.51 52.15 51.62 54.11 56.21 56.81 58.05 58.90 59.30 59.40 59.58 60.83 62.18 62.12 62.10 62.12 62.11 62.15 62.42 61.73 61.91 62.16 61.89 60.34 61.62
38.55 44.26 43.53 42.07 38.82 33.77 39.95 30.15 38.12 41.08 42.32 44.47 43.05 42.83 44.41 44.92 46.80 48.12 48.94 48.44 51.87 52.35 53.25 53.27 53.41 52.82 53.89 53.78 56.66 56.35 56.31 57.13 58.60 59.65 60.15 60.83 61.46 62.24 61.93 61.86 61.88 61.97 62.28 61.69 61.86 62.05 62.05 61.45 59.18
42.53 45.29 42.92 41.83 37.51 34.31 36.19 31.20 36.67 40.62 41.58 42.67 43.28 43.03 43.69 44.70 46.43 47.96 48.49 49.35 51.28 53.63 53.32 53.62 54.12 54.24 54.13 55.19 57.43 57.92 57.25 57.81 58.98 58.96 59.21 59.92 61.18 62.28 62.58 62.13 62.22 62.24 62.26 61.91 61.80 61.75 61.57 61.97 60.40
46.81 42.15 39.91 37.73 34.89 28.40 35.45 34.03 33.71 37.65 42.06 43.36 43.82 43.74 44.20 44.55 46.10 48.32 49.13 49.29 50.10 52.72 53.73 52.94 54.41 54.66 54.00 55.40 56.95 56.51 54.99 55.03 55.97 57.37 57.83 59.24 60.33 61.78 62.61 62.33 61.98 62.20 61.93 62.25 61.93 61.92 61.50 60.88 60.84
41.63 36.23 29.87 27.55 27.35 28.26 36.57 34.20 36.81 42.88 44.70 45.54 45.55 44.00 44.28 45.32 45.31 47.54 47.90 48.00 49.18 51.44 53.57 53.23 53.79 53.95 53.95 54.90 55.87 55.83 53.81 54.34 55.06 55.55 57.99 58.62 59.65 60.91 61.46 61.62 61.79 61.67 61.95 62.29 62.40 61.30 60.86 61.22 60.44
38.67 37.43 31.12 25.33 25.02 29.88 37.28 33.29 39.09 44.81 47.54 48.13 47.85 45.85 44.93 44.65 45.54 47.34 48.01 48.37 49.43 51.12 53.55 54.18 53.47 53.42 53.27 53.59 54.43 54.19 54.22 53.55 52.99 54.58 57.81 58.37 59.83 60.67 61.27 61.44 62.03 61.79 62.32 63.02 62.38 61.79 61.17 60.84 60.18
39.02 35.61 38.75 33.31 32.87 30.54 33.43 38.68 44.53 46.89 47.08 46.54 44.00 44.28 44.05 44.53 44.67 47.37 48.10 48.53 49.15 50.17 51.99 54.20 54.19 52.76 52.95 53.26 53.72 54.44 54.25 53.76 53.53 53.72 55.28 57.81 59.75 61.45 61.09 60.42 59.90 60.87 61.60 62.05 61.33 61.57 60.84 61.47 60.75
42.96 43.12 34.89 32.10 26.78 25.65 31.19 34.65 36.99 42.26 44.96 46.17 44.61 42.70 43.74 44.59 44.69 46.81 48.01 48.56 49.00 50.31 51.28 54.36 54.51 52.62 52.87 52.41 52.78 53.54 53.63 53.91 53.40 53.41 54.48 56.73 56.76 58.00 57.07 56.80 56.50 56.49 58.39 59.78 60.35 59.79 60.46 59.81 59.75
39.13 37.72 37.81 35.51 32.90 27.69 24.71 31.97 41.58 44.33 47.84 47.78 46.19 43.95 44.22 45.07 45.85 46.86 47.97 48.53 49.13 49.54 50.76 53.44 53.93 52.06 52.30 51.42 52.37 53.27 53.28 53.53 53.51 53.36 53.66 55.04 56.02 56.71 55.84 56.54 57.06 57.21 57.44 58.48 58.08 57.44 58.41 57.05 57.02
43.33 40.41 40.20 33.42 31.73 33.73 32.07 34.03 45.38 47.38 49.51 50.67 48.97 45.17 44.44 45.83 46.84 47.29 48.14 47.96 48.22 49.22 50.38 52.61 53.37 51.99 51.62 51.28 52.47 52.81 52.82 52.61 52.97 53.29 53.49 54.24 55.03 56.15 57.05 58.10 56.81 56.43 56.19 56.73 57.16 56.61 56.49 55.80 56.05

GFSSGP_sfc_wetblb_009.txt.gz
Wetbulb
68.97 68.56 65.89 64.40 56.08 51.33 48.94 48.99 49.20 48.89 49.43 51.97 51.47 50.24 50.04 50.78 50.60 46.50 59.99 61.71 64.57 63.76 67.96 68.30 73.95 73.07 72.14 71.37 71.20 70.86 70.17 68.58 66.69 66.13 65.62 64.67 64.19 64.59 65.63 66.38 67.04 67.45 68.02 68.12 67.70 67.70 68.61 68.53 69.83
66.84 64.54 64.23 60.29 53.24 48.64 49.00 48.15 48.70 50.92 51.10 51.48 51.30 51.03 50.10 49.11 54.70 56.35 58.57 62.07 63.79 63.93 67.20 68.25 72.39 73.50 72.48 72.14 71.65 71.23 70.24 68.71 67.13 66.72 66.24 65.35 64.75 64.59 65.41 66.10 66.45 66.63 67.23 68.03 67.78 67.62 68.29 68.61 69.40
64.76 65.30 61.77 57.20 52.44 48.26 48.41 48.73 49.79 50.74 51.25 51.01 50.51 52.91 52.27 51.87 55.83 57.45 60.84 61.73 62.15 64.01 65.86 68.30 71.27 73.16 72.93 71.89 71.67 70.23 69.17 68.54 67.50 67.40 66.82 66.29 65.19 64.90 65.47 66.00 66.19 66.58 66.53 66.92 67.92 67.76 67.81 68.46 68.80
64.36 63.72 58.64 54.15 49.86 51.67 51.37 53.84 49.54 50.13 50.34 50.88 51.00 50.11 54.80 57.68 57.38 59.33 60.07 59.73 60.03 60.50 63.80 66.95 69.38 71.72 71.67 70.95 70.82 70.39 69.33 68.37 67.82 67.27 66.86 66.69 66.05 65.24 65.27 65.44 65.53 65.61 66.19 66.55 66.85 67.87 67.79 68.24 68.64
62.83 59.70 54.36 51.48 50.55 51.74 50.10 50.04 49.93 50.38 50.11 49.79 51.46 50.43 52.64 56.89 58.65 58.45 58.81 58.98 58.61 59.56 62.83 65.98 67.61 69.88 70.65 70.19 69.96 69.14 68.55 68.18 67.50 66.62 66.60 67.02 66.25 65.57 65.26 65.48 65.56 65.55 65.37 65.51 66.61 67.20 68.49 69.33 69.24
58.51 58.19 51.91 49.57 50.84 52.62 51.65 50.81 49.87 50.25 50.77 50.59 50.67 51.35 53.31 57.48 57.22 57.40 58.59 59.08 61.87 61.78 65.19 66.02 66.66 68.07 68.99 69.34 69.19 68.41 67.39 66.33 66.08 66.06 66.15 66.23 66.12 65.75 65.45 65.45 65.19 65.20 65.07 65.04 65.93 66.83 68.04 69.39 69.92
56.22 55.16 50.16 50.37 51.03 50.63 50.27 50.38 49.16 50.36 49.89 49.85 53.52 50.45 53.62 55.38 55.32 56.12 56.27 57.55 58.84 59.42 60.56 62.30 61.80 61.81 61.69 62.39 63.36 63.93 64.28 64.39 64.41 64.72 64.84 65.23 65.51 65.58 65.50 65.19 65.45 65.71 65.19 64.68 65.19 67.01 68.32 68.09 69.76
58.49 56.29 50.51 50.50 49.55 50.03 50.31 49.62 49.99 50.57 50.63 53.60 54.87 50.43 51.13 54.68 55.08 56.72 57.83 58.37 58.28 58.80 59.93 60.78 59.78 60.89 62.14 62.48 62.18 62.46 63.30 63.33 63.50 63.85 63.98 63.92 64.49 64.39 65.21 65.30 65.22 65.35 65.16 65.05 65.06 66.75 68.17 67.42 68.00
56.76 52.08 48.55 49.60 49.57 51.08 49.74 49.32 50.19 52.23 51.42 52.06 52.78 52.60 53.20 54.48 55.21 56.08 57.24 57.41 59.18 60.06 60.77 61.65 61.19 61.33 61.84 61.87 61.46 61.70 61.44 62.14 62.10 61.96 61.64 62.05 62.61 62.71 63.47 64.08 65.11 64.87 64.85 64.97 65.09 66.30 67.41 67.36 67.73
54.69 50.95 50.55 54.03 53.02 51.69 50.38 50.01 50.48 50.86 50.37 50.56 51.08 52.12 53.17 54.27 54.86 54.98 55.54 56.42 57.60 59.02 60.11 61.15 61.37 61.10 61.60 61.18 61.91 61.90 61.36 60.97 60.07 61.22 61.30 61.42 61.86 61.19 60.27 62.39 63.86 64.31 64.54 64.57 65.14 66.21 66.67 67.34 68.23
53.60 49.72 52.36 52.96 54.22 52.91 50.77 48.61 51.24 50.55 49.03 51.99 51.74 51.79 52.94 53.85 54.76 54.66 55.73 56.73 58.20 59.32 59.92 60.76 61.27 61.40 61.65 61.25 61.58 61.65 60.62 59.42 59.49 59.87 61.10 60.93 61.30 61.22 60.04 62.15 63.24 64.90 64.03 64.22 65.58 66.31 67.54 67.35 67.89
50.19 53.40 53.88 54.01 52.89 49.92 49.01 50.21 49.49 51.11 52.21 53.40 53.87 53.91 53.37 53.60 54.37 54.62 55.76 57.22 58.47 59.02 59.63 60.30 60.57 61.55 62.00 61.40 61.46 61.75 60.43 61.20 61.44 59.77 60.69 59.65 59.67 60.86 59.52 60.58 62.71 63.63 63.77 64.25 65.81 66.27 67.88 68.04 68.08
51.19 52.67 51.76 52.16 50.44 50.34 49.84 49.20 50.00 50.70 53.03 53.34 53.25 52.71 53.11 53.80 54.40 55.94 57.36 58.86 59.04 58.38 59.58 59.95 60.43 61.38 61.94 61.72 61.66 62.03 61.76 60.88 60.65 61.21 60.97 59.40 60.20 60.14 60.84 61.08 62.28 62.80 63.65 64.44 65.32 66.37 66.83 67.38 67.58
53.28 52.14 50.09 49.73 49.38 49.51 49.08 48.85 49.90 51.68 53.34 52.10 52.15 52.54 52.84 53.28 54.65 55.87 56.94 58.02 58.44 58.99 59.86 59.83 60.67 61.47 61.76 61.80 61.84 61.91 62.10 62.29 60.38 59.81 62.13 62.34 61.86 62.14 61.97 62.11 62.24 63.21 64.49 65.32 66.33 65.95 66.60 66.74 67.47
51.17 49.00 49.56 49.63 49.60 49.27 50.12 47.61 48.30 52.75 53.04 51.91 51.54 51.81 52.23 53.61 54.71 55.71 57.85 58.31 58.74 59.35 60.17 59.68 59.96 61.81 61.77 61.83 61.74 62.10 62.43 62.21 61.88 62.76 63.20 62.85 62.76 62.38 62.08 62.73 63.26 65.16 66.26 66.17 66.39 66.07 67.12 67.16 66.75
48.77 48.30 45.80 49.00 48.91 48.78 49.19 45.60 51.29 52.49 51.63 51.33 50.64 50.75 51.66 52.94 54.43 56.60 58.76 59.25 59.64 59.80 59.94 60.45 59.90 61.72 61.80 62.14 61.88 62.10 63.21 62.60 63.28 63.95 64.03 63.97 63.90 64.12 63.82 63.23 63.72 65.78 65.00 65.15 65.10 64.90 64.54 65.91 65.31
47.85 45.27 46.13 46.44 49.24 47.96 47.95 46.34 50.79 51.11 51.57 51.59 50.49 50.67 51.41 52.46 54.31 56.90 59.01 59.52 59.77 60.29 60.12 60.14 60.99 61.44 61.32 62.08 62.58 62.76 63.47 63.44 63.52 64.00 63.74 64.39 64.58 64.22 64.26 63.95 65.40 65.56 63.35 65.11 65.13 65.18 65.06 64.54 64.22
44.75 44.43 44.82 45.30 48.43 47.42 46.61 46.24 50.54 51.42 50.82 50.97 50.67 50.56 51.35 52.03 53.91 56.95 59.08 59.83 60.23 61.06 60.52 60.46 60.65 61.03 61.03 62.07 62.63 63.01 63.99 63.55 63.86 63.24 63.08 64.42 65.18 64.02 64.67 63.24 63.79 63.56 64.07 65.11 65.54 64.87 66.12 65.05 63.66
48.49 46.53 45.53 47.33 49.67 47.39 47.63 47.83 49.43 51.46 50.25 50.30 50.59 50.57 51.29 52.22 55.22 57.09 58.88 59.94 60.29 61.34 61.41 60.52 61.18 60.74 60.46 61.39 60.99 61.01 60.96 61.69 63.50 62.30 61.60 62.65 63.96 62.73 64.11 63.94 63.85 64.82 63.37 65.18 65.97 66.31 64.44 62.36 64.12
47.12 45.67 45.65 47.90 48.36 47.72 48.11 47.24 50.16 50.69 50.66 51.60 51.75 50.87 51.32 52.39 53.56 55.74 58.09 59.50 60.12 59.77 59.80 61.09 60.35 59.90 59.17 60.76 62.29 59.41 60.94 62.26 61.85 61.32 61.85 63.25 62.98 62.84 64.52 64.16 64.10 65.34 64.67 64.95 65.19 65.31 64.48 63.19 63.44
46.96 46.05 46.01 46.02 46.86 47.63 46.14 45.43 48.34 50.90 50.09 50.71 51.97 52.77 52.35 52.41 53.00 55.22 56.84 58.54 59.73 59.10 58.17 60.33 60.80 60.23 60.32 61.92 62.26 61.50 63.70 62.13 61.36 61.32 62.18 62.13 63.41 62.94 63.89 64.35 64.99 65.24 65.51 65.08 65.33 64.87 63.52 60.44 63.80
45.35 48.93 47.93 46.63 44.93 41.98 46.41 39.84 46.37 49.59 50.14 50.64 51.52 50.79 51.34 52.11 53.85 55.51 56.69 57.38 59.39 59.44 59.14 58.93 60.12 60.99 60.81 62.91 63.12 61.90 61.91 59.85 61.30 61.94 63.16 62.74 63.59 63.19 63.60 63.54 64.31 63.12 65.08 65.51 64.75 65.33 62.69 63.07 60.82
47.55 49.32 47.92 46.85 45.35 43.41 43.27 40.91 44.90 47.25 48.15 51.19 53.76 51.57 51.47 52.57 53.56 54.69 56.17 56.89 59.29 59.97 60.41 61.13 60.85 60.90 61.32 62.95 63.28 61.83 61.47 62.51 63.17 63.37 63.10 64.01 64.82 63.24 64.73 63.07 62.28 62.72 63.69 64.48 62.54 63.12 62.50 64.80 64.11
50.91 47.53 45.77 44.88 44.04 39.19 43.55 42.35 43.57 46.34 49.15 51.37 52.87 52.02 51.09 52.10 53.27 55.36 57.02 57.09 58.32 60.27 60.39 60.80 61.41 60.33 60.80 62.31 62.63 61.65 60.74 62.00 60.17 62.34 61.54 61.97 62.56 65.07 64.92 64.68 64.08 63.64 63.91 63.62 63.34 64.96 65.42 64.87 65.05
49.10 46.42 40.28 38.47 38.95 37.88 42.49 41.15 44.86 50.36 51.89 51.33 52.22 52.86 51.41 52.02 53.00 54.72 55.42 55.39 57.18 59.14 60.10 60.19 60.47 59.73 60.17 61.31 62.51 61.08 60.47 61.39 60.76 59.61 60.10 61.04 62.10 62.67 63.48 64.53 62.97 62.66 63.43 63.55 62.93 62.61 64.13 63.18 63.39
47.17 47.29 40.93 33.76 35.65 39.13 42.10 39.96 44.66 51.65 52.97 53.66 53.33 53.41 51.75 51.51 53.25 54.78 55.74 56.42 56.98 58.45 60.08 60.01 59.58 59.69 59.41 60.27 61.81 61.13 61.29 59.91 60.52 61.51 60.44 61.67 62.53 62.39 63.43 63.04 63.83 63.74 62.61 63.34 64.60 64.16 64.44 64.93 63.12
44.91 43.39 48.30 43.32 41.01 39.38 42.41 45.15 50.04 52.32 53.24 52.11 50.60 50.02 49.89 51.58 52.96 54.63 55.99 56.85 57.48 58.37 60.37 60.78 60.65 59.84 59.41 59.56 61.37 61.15 60.92 60.71 60.23 62.28 61.52 63.50 62.71 63.28 63.90 62.54 64.58 65.28 64.57 63.26 63.39 64.64 63.78 61.34 61.37
48.59 48.93 42.15 42.75 35.47 34.25 39.56 41.11 43.57 48.84 51.18 52.86 50.39 50.00 50.42 51.88 52.84 54.61 55.94 56.67 57.82 59.23 59.66 61.17 61.86 60.15 59.36 59.63 60.49 60.29 59.92 60.10 60.88 61.86 61.44 62.62 62.23 61.18 61.21 60.20 60.16 61.90 64.67 62.97 63.00 63.51 63.88 63.90 63.52
45.44 44.94 45.08 44.79 42.46 37.94 36.52 40.96 50.67 50.99 54.06 55.17 54.60 52.43 51.20 51.70 52.71 54.29 55.87 57.00 57.88 58.70 58.66 59.95 61.38 59.94 59.96 59.69 59.92 60.71 59.69 59.65 60.82 60.64 61.20 60.36 61.48 61.30 60.36 60.55 60.06 60.38 62.86 63.48 64.18 64.80 64.59 64.49 63.80
49.72 47.24 47.60 41.89 40.51 42.17 41.61 41.89 51.76 54.19 55.61 56.44 54.82 52.56 52.32 52.85 53.29 54.49 55.98 56.70 56.97 57.45 58.34 59.20 61.32 60.14 59.94 59.52 59.46 60.09 59.61 59.55 60.48 60.48 61.11 62.06 62.19 62.58 62.80 62.40 61.99 60.97 61.43 62.36 63.34 63.10 63.38 63.63 62.82

GFSSGP_sfc_wetblb_015.txt.gz
Wetbulb
68.34 67.62 71.81 68.72 59.57 57.20 53.91 55.01 57.48 55.20 55.57 58.04 57.76 55.80 54.15 54.70 52.03 50.09 63.55 64.79 64.56 65.08 68.09 70.85 73.71 73.57 73.13 73.27 72.98 73.03 72.69 71.63 70.56 69.24 67.90 67.15 66.91 66.61 66.19 65.52 65.44 66.40 67.52 68.26 69.11 69.10 68.28 69.11 69.78
69.59 69.90 68.72 64.44 55.97 52.76 53.19 56.80 54.60 56.75 57.73 57.96 56.92 55.74 54.37 52.96 56.60 57.17 60.23 65.12 64.98 65.51 67.77 67.29 72.98 73.97 73.96 74.02 73.80 73.35 72.04 71.46 70.65 69.62 68.66 67.94 67.59 67.16 66.84 66.50 65.82 66.11 66.75 67.44 68.50 69.23 69.11 68.60 69.53
70.20 68.83 63.19 60.43 56.69 52.78 52.83 55.95 56.54 57.67 57.45 57.04 55.77 56.82 55.40 56.01 58.09 58.34 64.24 65.18 65.08 65.18 65.34 67.27 72.28 73.45 73.74 73.81 74.02 73.28 71.70 71.17 70.47 69.30 69.93 68.81 68.31 68.11 67.73 67.17 66.52 66.29 66.75 67.45 67.58 68.35 69.24 68.57 69.03
66.50 65.74 63.26 55.27 53.07 55.56 55.42 56.85 57.37 56.69 57.19 57.00 56.60 53.97 58.01 61.21 59.84 61.54 64.31 63.79 63.29 63.02 63.20 68.08 68.75 68.23 69.95 71.92 72.39 72.20 71.29 70.62 69.70 68.27 68.25 68.13 68.13 68.25 67.65 67.45 67.21 66.51 66.52 67.04 67.31 67.42 68.13 68.99 68.62
66.43 62.51 56.69 54.66 54.81 56.56 57.45 58.18 57.48 55.53 55.94 55.83 55.83 54.13 55.83 61.27 62.96 63.16 63.11 62.68 62.20 62.87 64.25 64.11 68.20 67.05 67.94 69.41 70.27 70.20 69.20 69.12 68.39 67.78 67.56 67.51 67.70 67.87 67.35 67.11 67.35 67.11 66.40 66.29 66.69 67.44 67.79 67.96 68.79
60.30 60.47 53.75 52.61 53.32 56.76 58.06 57.95 56.80 55.92 56.03 56.11 54.71 54.82 56.25 63.09 62.28 62.67 62.86 63.19 63.32 63.33 64.58 64.50 67.33 67.93 66.05 64.88 64.66 65.24 65.49 65.76 65.89 66.48 66.46 66.71 66.67 66.56 66.21 66.65 67.09 67.02 66.70 66.15 66.38 66.18 66.85 67.78 67.90
58.89 57.27 54.65 54.45 54.20 55.07 56.53 58.66 56.02 55.74 55.99 55.47 57.00 53.48 57.79 60.37 62.03 63.28 62.78 62.81 62.99 63.22 63.23 64.20 64.82 66.92 65.44 65.18 63.71 62.75 63.78 64.26 64.73 64.99 65.23 65.28 65.42 65.78 65.70 65.90 66.50 66.66 66.74 66.18 66.28 66.12 65.90 66.90 67.64
59.87 58.55 54.68 54.86 53.37 53.85 57.94 57.82 58.97 56.44 55.89 58.26 57.73 53.14 54.27 60.84 62.92 62.84 62.35 62.09 62.27 62.99 62.83 64.03 64.26 63.90 65.81 66.34 65.84 63.96 63.79 64.39 64.12 64.10 64.12 64.44 64.96 65.21 65.53 65.66 65.90 66.57 66.59 66.09 65.61 65.90 65.96 66.56 67.60
61.89 54.56 52.36 53.54 53.41 55.01 58.14 57.01 59.16 59.16 57.19 56.80 57.15 57.03 59.20 61.78 61.76 61.04 61.04 60.86 61.58 61.83 62.93 63.16 63.18 65.70 66.67 66.33 66.31 64.77 65.65 64.87 64.19 64.17 63.89 63.70 64.02 64.88 64.99 65.49 65.72 66.22 66.43 65.89 66.28 66.37 66.42 66.41 67.43
57.60 53.97 53.21 56.05 56.29 55.62 57.34 57.55 58.01 57.00 56.57 55.92 56.36 58.46 58.92 60.19 60.27 59.72 59.88 59.63 60.22 60.77 62.44 61.98 64.65 66.66 66.54 65.56 66.33 66.41 65.40 65.11 65.38 64.36 63.91 63.65 64.28 64.17 64.15 63.93 64.14 65.23 66.21 66.02 65.73 65.89 65.65 65.98 66.54
57.62 53.28 55.24 55.17 56.14 57.42 56.92 56.50 57.73 56.26 54.62 56.50 54.99 56.54 59.03 59.37 59.90 59.95 59.36 59.63 60.79 61.98 61.76 63.11 66.00 66.70 66.55 65.71 65.54 64.73 65.20 65.03 64.58 64.25 63.69 64.35 63.86 64.45 63.61 63.88 63.54 64.15 65.14 66.52 65.86 65.51 64.99 64.31 65.44
55.36 57.01 56.28 55.18 56.19 57.52 55.82 57.32 55.95 55.99 56.06 57.59 56.98 57.23 59.00 58.90 59.50 59.73 59.66 60.01 60.81 61.32 61.38 64.66 65.95 66.55 66.96 66.18 65.07 65.07 64.61 64.44 64.31 63.63 64.04 64.54 63.60 63.21 63.23 63.31 63.36 64.44 64.42 66.05 67.66 66.88 65.52 65.75 66.73
55.86 55.81 56.61 56.42 56.76 57.93 57.50 55.52 55.74 55.40 57.11 57.43 57.23 57.40 57.80 58.86 59.73 61.09 60.69 61.39 62.03 60.75 62.42 64.69 65.86 66.58 66.45 65.58 65.50 65.20 64.48 63.87 65.05 64.91 65.04 65.89 63.85 64.06 63.74 63.61 62.83 63.00 64.26 65.04 65.61 66.46 64.89 66.20 67.12
57.36 57.06 56.06 56.42 56.69 57.37 54.80 55.58 54.71 56.34 56.80 56.42 57.41 56.86 57.02 58.17 59.79 60.86 61.07 61.25 61.72 60.59 63.08 64.64 65.20 66.06 66.06 66.23 66.51 65.48 65.83 65.98 65.34 64.78 64.63 64.75 66.09 65.81 64.94 64.59 64.16 65.17 64.44 65.05 64.80 65.55 65.66 65.91 66.58
57.35 53.85 55.13 55.33 56.30 55.82 56.41 52.94 53.98 57.06 57.60 56.29 56.33 57.65 58.12 58.97 59.99 60.05 61.55 62.20 61.63 61.38 63.92 64.15 64.88 65.35 66.31 66.72 66.37 66.27 65.52 65.98 65.22 64.70 66.14 65.21 65.99 66.11 65.54 65.35 65.37 66.87 64.70 65.23 65.29 64.33 66.44 65.63 67.02
54.05 54.50 50.92 54.85 55.83 55.88 54.50 50.20 56.16 57.80 56.95 56.56 56.97 57.66 58.04 59.02 59.54 60.75 61.59 62.68 62.37 61.43 61.40 63.74 64.87 65.20 66.15 66.40 66.26 66.08 65.96 66.38 67.20 65.80 65.49 65.87 66.05 66.05 66.19 66.29 65.45 65.83 67.97 66.57 65.15 64.90 64.69 65.85 66.11
53.43 48.80 50.17 51.94 56.34 55.26 54.03 51.53 55.99 57.85 56.75 55.98 56.90 57.74 57.85 58.35 59.97 61.31 61.82 63.00 62.76 60.98 62.80 62.88 65.09 65.15 65.52 66.86 67.12 66.70 67.25 67.23 67.95 67.30 65.05 66.54 65.97 66.01 66.95 66.60 67.27 67.82 66.55 65.06 65.97 64.99 65.54 65.21 65.40
49.54 50.11 51.04 50.55 54.53 55.36 53.09 52.95 55.83 57.02 56.40 55.73 56.84 57.98 58.41 58.52 59.35 61.11 62.28 63.22 62.78 62.09 63.16 63.50 64.82 66.17 65.78 66.67 68.31 66.16 67.22 67.21 66.43 66.62 62.98 65.09 66.68 66.16 67.18 66.86 66.64 66.89 67.11 66.94 66.14 66.00 66.79 66.12 64.51
52.92 52.09 50.87 53.15 55.11 53.81 53.11 53.20 54.98 56.50 56.16 55.83 56.28 57.59 58.69 59.19 60.31 61.55 62.46 63.24 62.63 62.23 62.84 63.41 63.77 65.52 65.50 65.39 64.91 64.57 65.96 63.67 65.62 64.33 64.91 64.66 65.76 65.58 65.61 67.34 66.24 67.36 66.79 66.40 67.10 67.31 66.12 66.48 66.56
52.90 51.64 50.80 53.36 55.15 53.92 53.42 52.45 54.59 55.22 55.65 56.25 56.58 57.51 58.56 59.58 59.67 60.45 61.88 62.86 62.68 62.24 60.87 62.96 63.82 65.12 66.43 67.21 67.44 65.87 65.40 64.94 65.33 65.54 65.55 65.22 64.94 65.83 65.97 66.59 66.42 66.30 66.72 66.29 66.57 66.74 66.17 66.52 66.72
52.34 51.16 51.22 51.31 53.84 54.83 52.92 50.76 52.59 54.97 56.04 56.34 56.93 58.14 59.31 59.84 59.46 60.04 60.98 62.28 62.72 61.71 62.42 62.77 64.04 65.39 67.13 67.32 67.31 67.80 66.85 67.14 66.18 63.47 64.15 65.46 65.18 65.36 66.51 66.46 66.74 66.44 67.59 65.28 67.24 66.98 65.94 62.70 65.68
50.05 53.65 52.73 51.63 50.73 46.85 52.92 44.63 51.01 53.37 53.24 54.64 55.85 57.59 58.52 59.92 60.51 60.45 60.87 61.86 62.36 61.61 63.26 64.00 64.58 65.43 66.54 67.11 66.35 66.27 65.56 64.24 65.74 65.28 64.16 64.52 65.95 65.30 65.61 66.53 66.52 67.42 67.67 66.73 67.94 68.37 66.11 65.39 63.16
51.65 54.23 52.81 52.22 50.30 49.82 49.27 46.94 49.83 52.87 51.30 52.73 55.09 56.71 59.47 60.53 60.44 60.06 60.57 62.14 62.04 61.76 63.02 64.39 65.31 64.91 66.04 66.27 66.27 67.44 64.90 65.99 66.49 66.37 62.59 64.92 65.33 65.54 65.51 65.84 66.92 67.43 68.65 68.20 67.05 67.32 67.29 67.56 64.26
55.20 52.71 52.26 52.01 50.26 44.03 48.03 47.50 47.72 50.18 50.94 52.29 54.86 56.85 59.26 60.03 60.24 60.62 61.68 62.43 61.20 61.69 63.04 64.21 64.95 64.07 65.71 66.23 65.66 65.64 65.08 64.13 62.30 64.72 64.01 64.04 65.19 66.68 66.16 66.26 66.77 67.43 67.29 67.42 68.02 67.87 67.48 66.84 67.19
53.48 50.85 44.35 42.75 43.55 42.23 49.66 47.29 49.08 52.77 52.73 53.41 54.68 57.03 60.43 60.11 59.95 60.00 60.48 60.65 60.53 60.95 62.06 63.52 64.28 63.34 64.02 65.18 64.84 65.07 65.53 65.27 63.50 64.41 62.79 62.08 64.78 64.96 65.83 66.14 66.85 67.44 67.63 67.62 67.88 68.43 67.72 67.66 67.70
51.18 50.37 44.76 38.71 41.32 44.64 49.91 44.92 49.50 53.85 54.57 55.43 57.43 59.72 60.89 59.92 59.91 60.17 60.75 60.73 59.93 61.12 61.44 62.55 63.11 62.99 63.74 64.12 64.53 65.08 66.23 66.15 64.22 65.02 63.63 64.64 65.64 65.32 64.54 65.93 66.01 66.37 66.60 67.18 67.66 68.21 68.27 68.25 68.14
51.08 47.97 51.87 47.39 48.25 45.05 47.32 50.31 53.16 53.60 53.28 55.56 57.39 58.56 59.41 59.59 59.71 59.96 60.81 61.21 60.03 61.19 61.73 62.47 62.86 63.26 63.22 63.73 64.72 64.50 65.71 66.01 64.65 64.96 66.04 64.30 65.46 66.43 65.61 66.01 65.32 65.59 66.09 66.76 67.49 67.42 66.76 67.60 67.30
52.61 53.42 46.80 47.91 40.80 39.88 45.27 46.80 48.29 50.73 52.22 56.14 57.69 58.27 58.92 59.29 59.34 60.19 60.74 61.07 60.27 61.53 62.64 63.21 63.11 62.31 63.01 63.61 64.01 63.68 65.01 66.21 66.24 65.51 63.66 62.74 63.62 64.32 64.45 65.52 64.45 65.14 66.14 66.51 66.94 65.86 65.93 65.95 66.37
49.90 48.82 50.55 50.45 48.22 42.91 41.90 45.76 53.74 52.81 53.54 54.46 57.98 59.17 58.87 58.91 59.17 60.01 60.87 61.28 60.36 61.17 62.21 63.20 63.14 61.47 62.69 63.25 63.65 63.62 64.22 65.06 65.01 65.23 64.79 65.43 65.46 62.94 62.66 62.87 64.47 63.91 64.91 65.56 66.02 65.14 64.88 64.72 64.02
52.88 50.29 51.27 46.26 45.08 47.80 47.25 47.18 55.02 54.92 55.12 56.88 57.79 59.60 59.53 59.65 59.72 60.40 60.84 60.74 59.66 60.64 61.77 62.51 63.14 61.19 61.68 62.76 63.24 62.63 63.74 64.79 65.27 65.34 65.61 65.47 65.58 64.86 63.16 62.74 62.49 62.88 64.64 65.30 64.85 63.36 64.18 63.63 62.17

GFSSGP_sfc_wetblb_021.txt.gz
Wetbulb
67.87 66.94 62.17 60.63 51.77 51.19 47.90 52.00 55.76 51.84 50.74 52.67 53.90 52.40 49.66 50.16 49.70 47.88 59.04 62.29 69.01 68.02 69.89 72.76 74.49 74.32 73.91 73.52 73.22 73.02 72.80 72.36 71.13 70.82 70.26 69.19 68.28 67.48 67.03 66.71 65.84 65.30 65.38 65.97 66.50 67.09 69.46 69.45 68.35
63.49 61.64 59.64 59.72 49.51 44.86 47.59 54.05 53.85 51.00 53.32 54.09 54.11 53.26 51.38 50.86 56.23 57.64 58.07 61.88 68.70 68.92 69.47 71.00 74.47 74.39 74.27 73.80 73.62 73.25 73.05 72.85 71.73 71.20 70.81 69.73 68.63 68.16 67.92 67.81 67.42 67.20 66.71 66.48 66.61 66.63 68.11 69.45 69.14
64.54 65.14 57.55 51.94 48.70 46.59 48.30 54.41 55.62 53.43 54.28 53.55 52.22 54.62 54.98 53.24 57.16 59.22 60.66 61.96 64.32 67.06 67.95 69.63 74.37 74.30 74.32 73.84 73.62 73.70 73.50 72.78 71.53 70.93 70.11 69.96 69.38 69.01 68.59 68.48 68.51 68.35 68.07 67.37 67.25 67.17 66.68 68.18 69.25
62.62 61.17 57.78 48.11 46.65 51.28 51.65 54.74 54.31 52.53 53.46 54.33 53.40 52.10 56.12 59.37 57.96 60.54 62.08 61.85 60.56 65.76 68.99 73.09 74.17 74.09 72.93 71.54 71.70 72.65 72.16 72.33 71.32 70.19 69.90 68.79 68.33 69.37 69.41 68.23 68.28 68.26 68.46 68.34 67.53 67.30 67.14 66.95 67.93
61.98 56.94 48.63 47.01 49.60 54.08 55.57 57.11 55.19 52.19 52.12 52.60 53.01 52.43 53.40 58.64 61.06 60.94 60.52 60.13 58.75 61.80 66.24 68.44 71.42 70.99 70.32 68.96 69.37 69.85 69.41 68.46 67.87 68.24 68.26 67.99 68.04 68.48 68.11 67.99 67.91 67.98 68.08 68.07 68.32 67.50 67.45 67.32 68.03
54.94 53.99 45.75 46.21 49.19 53.87 55.20 56.43 56.32 54.21 53.55 52.07 52.02 53.80 53.64 58.34 59.06 59.17 59.99 57.99 60.34 61.66 62.76 65.36 70.22 70.20 70.17 70.00 69.56 69.38 68.24 67.19 66.75 66.61 66.51 66.73 67.06 67.18 67.44 67.25 67.50 67.56 67.43 67.59 68.06 67.88 68.35 67.84 67.78
52.59 49.36 47.41 48.86 50.38 51.65 55.32 57.65 55.03 55.30 52.38 51.81 53.92 51.83 54.22 56.91 58.47 58.76 58.66 58.32 58.77 59.59 59.62 61.79 64.20 67.44 70.38 69.86 69.28 67.62 66.34 65.46 65.16 65.05 65.00 65.34 65.53 65.82 66.20 66.37 66.55 66.59 66.64 66.72 67.55 67.64 68.09 68.04 67.67
56.09 51.04 48.66 50.14 48.91 49.96 55.10 56.25 56.78 55.01 53.66 56.74 56.74 51.49 51.81 56.50 59.08 58.46 57.53 57.62 57.54 57.72 57.94 58.85 60.70 63.05 63.03 62.90 67.70 66.89 66.10 66.32 66.18 65.70 65.34 65.13 64.96 64.87 65.15 65.32 65.61 66.18 66.73 66.84 67.08 67.40 67.54 67.65 67.65
60.10 48.98 47.35 49.40 50.24 51.34 52.90 51.94 55.98 57.78 55.71 56.50 55.38 54.88 58.37 59.56 58.71 56.67 54.80 55.01 55.53 57.62 56.71 56.51 59.16 61.86 61.71 61.97 63.84 67.67 67.51 67.29 66.70 65.68 65.80 64.68 60.86 60.41 62.22 63.72 65.72 66.45 66.47 66.82 66.99 66.90 67.05 67.12 67.19
54.34 47.80 50.06 54.22 54.21 52.83 52.59 51.97 54.27 54.93 54.48 55.89 55.06 57.53 59.50 59.15 57.11 55.04 54.51 55.27 55.01 56.98 57.79 59.06 60.58 61.25 61.49 64.01 61.44 62.31 63.05 63.18 62.57 62.33 60.77 59.85 59.59 59.82 62.57 63.65 64.95 65.22 65.78 66.47 66.54 66.88 66.69 66.18 61.65
54.44 49.95 53.40 54.36 55.79 55.71 52.83 51.70 53.53 53.77 51.52 54.64 53.08 54.83 56.40 56.73 55.13 54.66 54.51 54.11 55.82 55.61 58.81 59.56 60.75 61.38 61.00 60.86 61.00 60.27 60.04 60.55 60.78 60.94 60.17 60.19 60.47 59.66 60.40 59.84 59.94 59.40 63.47 62.39 63.58 63.59 62.99 62.25 60.98
52.17 54.62 54.98 55.27 56.55 55.82 52.63 54.60 53.04 54.03 53.07 55.69 55.70 56.57 55.55 55.07 54.30 54.51 53.98 55.06 56.28 55.99 58.47 60.15 61.28 60.88 61.54 61.04 59.93 59.84 60.70 60.87 60.22 60.82 60.75 60.18 59.84 59.79 59.60 58.71 59.31 59.28 59.94 60.71 61.35 61.54 61.46 61.52 61.19
53.60 54.26 56.12 56.93 56.50 53.44 54.70 53.78 53.50 53.01 56.39 56.19 55.87 56.50 55.27 54.51 54.58 54.51 55.81 56.92 56.37 56.14 57.88 59.68 60.19 60.75 61.19 60.66 59.95 60.98 61.11 60.80 60.44 60.77 60.72 60.78 59.65 58.69 59.22 59.50 59.58 59.25 58.88 60.07 60.38 61.12 61.58 61.07 60.70
55.73 55.36 55.29 56.27 55.35 53.88 53.74 53.88 52.87 54.24 56.87 54.94 54.80 53.15 53.35 54.21 55.58 55.55 56.52 55.87 55.84 55.88 57.91 59.00 59.79 60.46 60.43 60.78 60.32 61.28 61.59 61.54 61.01 61.12 61.58 62.74 60.49 59.03 59.53 59.77 60.33 59.79 58.74 59.64 60.55 61.41 61.42 61.76 59.24
53.57 50.98 53.01 54.07 53.90 52.44 55.03 50.38 50.89 54.72 55.37 54.50 54.41 53.57 54.00 54.25 56.00 55.59 56.71 56.94 56.65 55.93 58.75 58.58 58.99 59.65 60.09 60.77 61.15 62.05 61.43 62.47 61.05 60.99 61.44 63.03 61.24 59.95 59.90 60.05 60.90 60.50 59.49 59.57 60.18 60.72 61.96 62.10 61.20
48.83 49.74 46.37 51.26 52.98 53.71 52.21 46.46 51.87 54.94 53.99 53.91 54.65 54.66 54.94 54.34 54.67 56.47 58.06 57.81 56.68 56.88 57.81 58.67 60.76 59.92 61.24 60.10 61.04 62.01 62.03 61.46 61.32 61.44 61.71 62.50 61.92 61.28 60.01 59.81 60.15 61.12 59.23 59.01 59.13 59.63 59.67 59.95 60.42
46.64 42.31 45.18 48.30 53.40 52.76 51.21 48.35 52.83 54.99 53.79 53.35 53.76 53.93 54.65 53.98 54.87 57.45 59.49 58.58 57.08 57.02 56.63 58.25 59.17 59.46 60.72 60.79 62.37 62.45 62.41 61.60 62.40 62.31 61.50 61.53 61.69 62.66 60.96 60.16 59.49 60.69 59.22 59.38 59.46 58.99 59.40 58.87 59.19
41.60 42.95 46.53 46.75 50.94 51.43 50.43 49.21 52.15 54.21 53.74 53.16 53.59 54.23 54.71 54.67 55.19 58.04 58.86 59.35 57.52 57.37 57.26 59.01 59.17 60.92 60.61 61.99 62.20 62.15 61.87 62.29 62.54 61.75 61.20 61.60 60.44 63.03 61.55 60.93 60.54 60.59 59.01 58.93 58.50 58.61 59.52 59.24 58.81
46.74 46.40 45.95 49.19 52.03 50.22 50.26 50.01 52.49 54.13 53.49 52.64 52.78 53.22 53.19 54.03 56.29 57.79 59.09 59.36 57.66 57.56 57.24 58.67 59.46 60.19 60.58 60.95 60.27 59.89 59.43 60.38 60.76 61.44 61.43 61.54 61.81 62.21 61.07 60.33 61.59 60.04 59.00 59.53 58.80 58.44 57.79 57.68 59.27
46.95 44.95 44.99 49.05 51.91 51.42 50.48 49.60 52.50 53.38 52.64 52.69 52.94 52.62 52.93 54.32 55.92 57.17 57.98 58.00 56.99 56.60 56.74 58.83 59.21 60.10 61.86 61.32 61.88 61.28 61.67 60.89 60.63 61.02 61.09 61.99 62.00 62.05 61.25 60.07 58.93 60.03 58.98 58.54 59.01 58.56 58.12 58.85 60.10
47.26 44.96 45.26 46.29 50.21 51.62 49.28 46.78 50.16 53.41 53.36 54.19 53.97 53.00 54.92 54.72 54.65 55.99 57.34 56.84 56.87 57.45 56.54 58.45 59.62 60.84 62.02 61.24 61.26 60.99 60.95 60.29 60.26 60.91 59.93 61.29 62.17 62.29 62.67 61.26 60.46 60.94 59.56 58.59 58.36 58.54 58.48 56.89 58.17
43.87 49.82 49.08 48.37 46.66 40.55 48.93 37.61 45.82 49.05 49.94 52.31 52.69 50.95 53.62 54.51 55.85 56.29 56.91 56.49 56.57 57.27 56.69 59.64 60.51 61.04 62.06 61.33 60.35 58.53 57.92 57.31 59.02 61.16 59.35 60.29 61.77 62.45 62.59 61.99 61.45 60.50 60.29 59.26 59.58 60.14 58.95 59.07 58.45
46.33 50.78 49.28 48.85 46.03 43.21 44.59 39.13 42.83 48.22 48.02 49.52 49.73 51.35 53.89 55.16 55.59 56.07 56.76 58.04 58.29 57.85 57.82 59.53 60.11 60.45 61.23 62.35 60.70 59.28 58.23 60.33 59.75 59.20 58.61 59.33 60.49 61.79 62.49 62.24 61.53 60.95 59.82 59.87 60.49 59.73 60.08 59.19 58.77
51.29 49.02 48.23 48.04 46.73 39.68 42.92 42.27 41.35 44.95 48.87 50.09 52.33 54.59 55.26 54.99 55.59 56.58 58.00 58.50 57.74 57.04 57.64 59.71 59.50 59.21 60.81 61.83 60.25 59.71 59.13 58.21 57.72 58.88 58.41 59.48 60.08 60.49 61.68 63.20 61.92 61.88 60.93 62.34 60.43 60.08 60.31 59.78 59.67
48.89 44.41 38.26 35.02 36.68 34.02 45.16 41.75 42.09 48.57 50.80 51.18 51.56 53.98 54.46 55.62 55.44 56.06 56.95 56.76 55.37 55.39 57.40 58.54 59.03 58.43 60.01 59.70 60.60 60.55 59.44 58.93 57.94 57.86 58.97 59.05 59.20 60.25 60.40 61.26 62.02 61.61 62.32 62.44 61.79 60.83 60.73 60.60 59.89
43.88 44.80 39.10 31.10 32.66 36.59 44.93 39.59 44.61 51.79 52.51 52.26 55.78 55.07 55.20 54.61 55.41 55.47 56.44 55.82 55.30 55.87 57.59 57.51 58.92 57.78 59.82 59.78 60.46 61.41 60.37 59.72 59.87 60.14 59.89 59.90 59.70 60.24 61.06 61.01 61.71 62.28 62.88 62.82 61.72 60.87 60.80 60.83 59.20
44.84 43.18 46.68 40.79 42.02 37.84 41.06 45.55 49.94 50.68 50.17 51.78 54.52 54.88 53.48 54.05 54.51 54.96 55.67 55.29 55.08 55.38 56.39 56.44 58.23 57.55 59.13 59.34 59.97 61.19 60.70 59.91 59.53 60.14 59.94 60.43 60.14 61.89 61.91 61.20 61.57 62.29 62.85 62.20 61.54 60.71 60.27 60.50 60.73
46.51 48.85 42.46 39.17 33.15 30.57 38.82 41.40 42.54 47.02 47.51 50.68 52.95 53.39 53.38 53.86 54.42 54.79 55.85 54.92 55.11 55.70 55.86 57.22 58.14 57.43 59.04 59.57 59.13 60.95 61.05 61.49 60.67 59.53 59.60 59.25 60.11 60.61 61.35 61.23 60.93 61.89 61.71 61.82 61.57 62.53 61.97 61.51 60.97
44.36 44.29 45.05 42.99 39.93 33.59 32.58 37.36 47.81 48.25 48.87 51.79 52.72 54.15 53.51 53.20 54.02 54.74 55.43 55.17 55.69 55.78 56.13 57.12 56.79 57.51 57.94 58.24 57.83 60.45 60.78 60.81 61.33 60.40 61.60 61.02 60.65 60.74 61.29 61.55 61.58 61.58 61.70 61.29 61.36 62.59 61.21 60.03 59.53
47.28 45.45 44.68 41.15 37.88 39.70 38.28 39.25 50.41 50.27 52.60 53.98 54.08 54.96 53.63 53.48 53.55 54.26 55.28 53.96 55.44 55.05 55.84 56.95 56.58 57.35 57.39 58.42 58.03 59.54 60.38 61.00 60.63 60.80 60.91 60.93 61.21 61.02 61.35 61.85 61.94 62.12 61.59 60.98 61.65 62.13 61.34 59.96 59.21

GFSSGP_sfc_wetblb_024.txt.gz
Wetbulb
66.81 66.53 60.84 59.87 51.60 49.39 46.31 49.88 54.38 50.44 49.53 51.30 51.96 50.21 48.86 49.21 48.63 44.13 57.49 64.88 66.03 65.22 69.37 72.26 74.05 74.18 73.80 73.43 73.10 72.43 72.04 71.56 70.63 70.13 69.87 69.54 68.68 67.93 67.35 66.80 66.25 65.86 65.57 65.78 66.18 66.39 66.98 69.30 68.77
62.52 62.70 58.21 57.73 48.52 43.84 45.65 52.47 50.69 50.64 51.99 51.83 51.67 49.92 49.53 50.21 56.39 57.02 59.17 66.79 65.97 66.54 68.61 70.94 74.25 74.01 74.13 73.60 73.23 73.21 72.79 72.06 71.22 70.94 70.53 70.26 69.36 68.65 68.18 67.88 67.69 67.38 67.31 66.95 66.92 66.79 66.39 68.07 69.22
62.46 62.83 56.48 51.94 46.92 43.98 45.27 51.78 53.63 53.80 53.60 52.37 50.62 53.19 52.72 52.08 58.28 57.31 58.31 67.33 66.50 66.31 68.60 70.27 74.30 73.96 74.20 73.45 73.33 73.26 72.84 72.59 71.86 71.27 70.72 70.64 69.73 69.02 68.75 68.36 68.49 68.31 68.52 68.14 67.63 67.48 67.17 66.68 68.33
60.81 59.24 57.24 47.41 45.56 49.20 50.76 53.78 55.36 52.23 52.06 52.43 52.22 51.74 54.48 57.75 58.88 59.93 61.61 67.66 66.63 66.38 68.40 71.48 74.15 74.22 74.33 73.93 73.51 73.33 72.66 72.66 71.87 71.15 70.37 69.78 68.99 69.80 69.47 68.88 68.73 68.53 68.61 68.46 68.40 67.91 67.61 67.30 67.28
60.03 54.67 46.98 45.12 47.63 51.22 53.88 55.88 54.69 52.07 52.48 51.15 51.49 51.85 52.27 58.34 60.49 60.14 59.70 63.74 63.34 65.75 68.21 71.97 73.78 73.81 74.23 73.31 72.39 72.22 71.63 71.38 70.45 70.49 69.88 68.85 68.84 69.16 68.67 68.16 68.06 68.20 68.11 68.22 68.35 68.57 67.62 68.19 68.22
53.61 51.60 43.47 42.02 46.95 52.05 53.37 54.17 55.89 53.16 52.57 50.94 52.15 51.69 51.79 57.48 58.79 57.95 57.79 60.27 64.88 65.52 67.51 69.08 73.06 73.09 72.01 71.71 71.02 71.06 70.15 69.90 69.54 69.15 68.69 68.32 68.05 68.01 67.73 67.60 67.57 67.50 67.69 67.87 68.15 68.03 68.22 68.64 68.36
50.94 48.15 44.27 47.09 48.93 50.70 52.99 55.84 53.05 53.74 53.57 50.59 53.95 50.49 53.41 55.01 57.36 57.97 57.32 60.26 60.84 62.26 62.52 63.80 65.62 68.50 71.25 70.90 70.81 70.08 69.12 68.63 67.55 66.73 66.15 65.86 65.83 66.13 66.28 66.59 66.92 67.11 67.31 67.31 67.35 67.44 68.06 68.05 67.93
53.49 49.62 45.68 46.96 47.55 48.63 53.02 53.24 53.55 53.33 54.27 55.54 56.26 51.40 50.26 55.18 57.51 56.66 56.50 56.91 57.96 59.40 60.72 60.44 61.29 63.28 63.62 65.11 69.34 69.04 68.60 67.22 66.54 66.44 66.11 65.88 65.83 65.69 65.42 65.57 65.67 66.02 66.24 66.64 66.95 67.12 67.90 67.67 67.74
56.82 46.95 45.12 46.69 47.70 50.45 53.22 49.02 53.87 56.10 54.19 54.94 54.85 55.35 57.63 58.26 56.82 54.90 53.57 53.57 53.35 55.82 55.21 57.16 58.74 60.37 61.03 61.06 63.57 68.36 67.82 67.03 66.97 66.34 66.48 65.32 61.68 60.49 61.80 63.59 65.30 65.43 66.48 66.50 66.61 66.93 67.79 67.25 66.91
52.45 46.09 49.41 53.83 53.03 51.23 52.91 50.74 51.17 52.10 52.33 54.06 54.70 57.38 58.31 57.71 56.12 54.18 53.04 53.51 51.73 53.41 54.21 57.58 59.54 59.66 60.14 62.90 60.37 61.98 62.78 62.73 62.64 62.95 61.36 60.12 60.31 59.12 61.35 63.26 64.99 65.03 65.24 66.05 66.43 66.65 66.84 66.45 62.11
51.96 48.98 53.87 54.01 54.56 55.10 54.31 53.43 52.99 51.38 49.41 52.26 52.64 55.03 55.78 55.51 54.37 53.89 53.68 52.15 53.18 54.64 57.48 57.63 59.34 59.86 59.56 59.90 59.36 58.71 59.06 59.41 60.90 60.76 59.68 59.03 59.39 58.59 58.80 59.30 59.40 58.53 61.83 61.14 62.89 63.60 63.22 62.85 60.88
49.51 54.25 55.08 54.97 55.97 54.65 52.93 55.48 53.15 52.68 51.99 55.09 55.65 56.84 55.87 55.04 53.87 53.39 52.72 53.55 53.73 55.77 57.00 58.99 59.58 59.39 60.08 60.06 59.27 58.26 59.54 59.68 59.32 59.72 59.61 58.73 58.56 58.30 58.34 58.82 58.69 58.47 58.76 59.30 60.37 60.55 61.44 60.80 60.78
51.83 53.67 55.80 56.25 55.39 54.64 54.97 53.31 52.67 52.52 54.68 55.09 55.68 55.74 55.73 54.97 54.34 53.91 53.35 54.18 54.24 55.99 57.64 58.77 59.11 59.70 60.07 59.25 58.72 58.43 59.60 60.13 59.46 59.03 59.67 59.45 58.84 58.08 58.02 58.28 58.28 58.54 58.21 58.37 58.96 59.78 60.32 60.45 60.76
52.61 53.88 54.55 55.71 55.00 54.64 52.92 53.43 52.81 54.48 55.56 53.73 54.77 53.99 54.42 54.20 54.03 52.75 54.55 54.20 55.25 56.20 57.23 57.69 59.00 59.28 59.04 58.85 58.59 59.30 59.99 60.48 60.39 60.05 60.04 60.87 59.84 58.84 57.92 57.84 58.70 58.68 58.18 58.01 58.84 59.62 59.62 59.53 59.48
50.01 47.18 49.99 51.94 52.85 52.00 53.86 50.05 50.96 54.28 54.12 52.63 51.92 53.26 53.61 54.17 54.11 54.16 55.98 55.32 54.62 55.95 57.25 57.36 57.34 58.62 58.65 58.97 59.24 59.87 60.73 61.02 60.34 60.32 60.50 60.92 60.32 59.06 58.93 58.08 58.36 59.28 59.02 58.11 58.44 59.46 59.96 59.98 59.73
45.94 44.37 41.63 48.64 51.04 52.48 50.46 46.23 52.08 53.64 52.77 52.20 52.68 53.00 52.24 52.87 54.51 54.79 55.91 55.38 53.87 56.11 56.43 57.56 60.90 59.53 59.07 58.54 58.88 60.59 60.77 60.55 60.32 60.18 60.73 61.78 61.69 60.16 58.93 58.10 58.46 59.42 58.94 57.60 57.88 58.22 58.60 60.17 59.70
42.66 39.63 42.04 45.11 50.49 50.85 49.43 47.37 51.71 53.76 52.53 51.82 52.19 53.04 52.80 52.55 52.09 54.05 56.30 55.69 55.28 56.01 56.22 57.28 57.74 59.62 59.34 58.98 60.43 60.48 61.21 60.47 60.66 60.78 60.80 61.01 61.38 61.49 59.63 58.60 58.70 59.13 57.62 57.22 57.72 57.58 58.08 58.08 58.37
39.70 39.18 42.90 43.92 48.76 49.24 47.59 47.49 50.83 53.73 52.76 51.56 51.84 52.20 52.44 52.35 52.54 55.48 56.47 55.67 55.03 55.01 56.98 57.17 57.87 59.60 58.87 60.11 60.24 59.94 60.31 60.47 60.51 60.48 60.58 60.87 60.34 60.84 60.35 59.04 58.84 59.02 57.18 57.24 57.36 57.47 58.67 58.31 58.16
45.20 42.83 42.38 46.29 49.64 48.49 47.68 48.58 50.76 52.30 50.75 50.36 50.70 51.69 52.30 51.77 54.37 56.70 56.85 56.15 55.49 55.55 56.71 57.26 57.83 58.39 59.71 59.55 59.21 58.47 58.21 59.27 59.19 59.85 60.98 60.67 60.84 60.91 59.99 58.98 59.35 58.66 56.92 56.70 57.49 57.52 58.36 57.32 59.09
43.45 42.45 42.86 46.64 49.16 47.16 47.32 48.08 50.79 52.03 51.69 51.96 52.42 51.41 50.76 52.07 54.62 56.06 55.65 55.02 54.89 54.83 56.15 57.19 57.98 58.63 60.31 59.40 60.05 59.83 58.98 59.70 59.45 59.57 60.02 60.47 60.92 60.94 60.41 58.83 58.80 58.35 57.20 57.01 56.95 57.41 55.86 56.94 57.82
42.57 42.06 43.59 43.45 46.89 48.01 46.81 45.43 48.49 51.91 53.15 53.09 52.95 52.30 52.64 53.06 53.21 54.87 55.13 54.12 53.98 54.17 56.01 57.05 58.48 59.64 60.56 59.71 59.50 58.81 58.41 58.27 58.09 58.93 58.46 59.25 61.51 61.18 60.34 59.72 58.05 58.53 57.36 57.20 56.92 56.85 56.96 56.49 58.08
41.10 46.69 46.73 46.13 43.55 38.26 46.98 37.36 43.87 48.09 48.83 50.22 50.96 49.98 51.48 52.79 54.19 55.38 54.46 53.16 54.29 55.02 55.77 58.55 59.00 59.69 60.51 60.30 58.60 56.26 55.80 55.74 56.76 58.52 57.76 58.86 60.54 61.15 61.33 60.96 59.90 59.15 58.02 56.63 57.23 58.13 57.51 57.52 57.88
44.11 47.79 46.65 46.63 44.16 40.07 43.39 37.83 41.56 45.92 46.19 48.58 48.92 50.59 50.42 52.53 53.70 54.58 54.54 55.21 55.71 54.69 57.08 58.57 58.92 59.54 60.43 59.27 58.90 57.37 56.37 57.20 57.56 57.58 57.79 58.69 58.95 60.18 61.97 61.12 60.57 59.53 58.66 57.45 58.25 58.27 58.15 57.72 58.68
48.83 46.08 45.47 45.05 42.14 35.53 41.97 39.82 42.50 43.18 47.10 48.02 50.24 50.44 51.92 52.15 53.20 54.73 55.77 55.88 55.29 55.10 57.06 57.89 58.26 58.83 59.67 59.75 58.42 57.45 56.47 56.39 56.66 56.73 57.74 58.54 58.40 59.12 60.28 61.30 60.17 59.38 58.69 58.23 58.62 58.33 58.69 58.39 58.86
45.93 41.00 33.81 31.11 33.48 33.85 42.79 40.42 43.95 47.21 49.19 49.39 50.76 51.27 51.89 53.43 53.99 54.77 54.95 54.71 54.06 54.74 56.62 57.85 57.38 57.33 58.30 59.50 58.76 58.31 57.64 57.11 56.35 57.27 58.32 58.54 57.86 59.29 58.98 59.88 59.90 59.49 60.66 59.61 58.89 59.00 58.62 58.85 58.54
41.92 41.62 35.48 28.63 29.91 34.73 42.86 38.37 43.54 48.86 50.87 51.65 53.34 52.96 53.17 53.55 54.05 54.63 55.20 54.46 54.35 54.91 56.06 58.10 56.56 57.04 57.99 59.22 58.90 58.90 58.55 58.19 58.30 58.35 58.42 57.96 58.50 58.80 59.07 59.94 60.68 60.91 61.16 60.56 59.35 59.14 58.90 58.75 58.12
40.60 37.88 42.76 37.29 38.48 35.00 38.24 42.62 48.00 48.73 50.79 51.99 51.69 52.62 52.48 52.40 52.95 54.53 54.17 53.62 52.35 54.86 55.47 56.67 56.89 55.94 58.06 59.17 59.12 58.60 58.38 57.83 57.35 57.15 58.36 58.12 58.74 61.10 59.72 60.04 60.63 61.01 61.11 60.38 59.72 58.80 58.26 58.34 57.86
43.12 45.02 37.55 35.33 30.96 29.18 36.33 39.08 40.46 44.35 48.41 50.80 50.70 50.52 52.15 51.71 52.79 54.06 54.64 53.22 52.73 55.10 54.47 56.07 56.90 56.80 57.66 57.71 59.16 59.20 59.40 59.71 58.25 58.70 57.90 58.72 58.98 59.77 59.41 59.42 59.79 60.73 60.65 60.01 59.67 59.41 60.09 60.79 59.99
39.38 40.06 40.00 40.65 38.01 32.60 31.32 37.68 44.60 45.69 47.52 50.61 51.22 51.79 51.64 52.09 52.92 54.01 54.00 53.64 53.14 53.81 53.54 55.14 55.95 56.64 57.04 57.51 58.31 59.11 59.38 59.67 59.79 60.08 60.44 59.20 58.99 59.90 59.74 59.94 60.32 59.97 60.17 60.42 60.85 59.91 60.15 59.75 58.68
43.88 40.24 41.68 38.76 35.45 37.50 36.82 37.97 47.57 47.49 49.82 52.48 52.19 52.96 52.36 53.15 53.43 54.03 53.36 52.63 52.87 52.94 53.86 54.64 55.31 55.99 56.47 56.29 58.57 58.53 59.23 59.59 59.16 60.02 58.97 59.28 59.05 59.99 60.10 60.37 60.37 60.28 59.78 60.68 60.90 59.90 59.88 58.95 58.13

GFSSGP_sfc_wetblb_030.txt.gz
Wetbulb
67.67 65.08 58.51 58.50 50.36 47.45 44.67 47.81 50.93 52.00 50.24 49.05 49.66 48.36 47.47 48.71 50.09 44.36 56.08 62.72 60.99 61.60 65.97 71.96 73.97 73.44 72.71 72.43 72.11 71.52 71.08 70.35 69.40 68.65 68.23 67.99 67.82 67.64 67.05 66.76 66.22 65.67 65.62 65.92 66.24 66.13 65.78 65.56 67.36
64.10 62.13 58.49 56.05 47.58 41.90 43.70 49.67 50.50 52.68 52.61 48.67 48.52 48.52 47.86 48.21 54.63 56.29 60.60 64.42 61.57 62.46 66.06 70.89 74.02 73.65 73.19 72.82 72.42 71.95 71.23 70.65 70.05 69.54 68.93 68.72 68.51 68.17 68.11 67.96 67.56 67.56 67.31 67.23 67.21 67.19 67.09 66.69 66.29
62.33 60.50 55.28 50.84 46.59 42.84 43.51 49.76 51.38 53.99 54.73 49.68 47.88 51.36 50.52 50.32 55.99 57.56 61.21 64.49 63.21 62.91 66.64 70.02 73.99 73.65 73.44 73.24 72.85 72.68 71.93 71.56 70.48 70.12 69.89 70.00 69.88 69.51 69.10 68.59 68.15 68.26 68.01 68.18 68.02 68.01 67.97 67.76 67.06
58.65 57.83 55.38 48.16 45.07 48.21 48.94 51.82 51.52 51.81 53.26 50.02 50.32 49.58 52.44 55.47 56.70 58.80 61.43 64.11 63.45 64.08 67.00 70.36 73.84 73.69 73.52 73.50 73.37 73.30 72.41 71.89 71.33 70.65 71.03 70.59 70.11 69.64 69.50 69.07 68.58 68.46 68.19 68.37 68.16 68.47 68.64 68.14 68.20
57.53 53.93 47.41 44.65 45.97 48.67 50.62 52.63 51.09 50.98 50.72 49.23 50.35 49.48 50.18 54.80 58.59 59.80 63.78 63.88 62.69 62.71 65.17 69.24 73.54 73.84 73.94 73.64 73.60 73.49 73.02 72.55 72.28 71.51 71.16 70.64 70.23 69.89 69.40 69.05 69.11 68.23 68.45 68.33 68.02 68.25 68.58 68.89 68.45
52.33 49.93 42.58 41.96 45.56 48.85 51.04 52.36 51.15 50.18 50.67 49.03 48.91 49.54 50.45 54.74 57.02 61.30 63.79 62.28 62.25 63.33 65.58 67.94 73.05 73.71 73.81 73.94 73.72 73.24 73.01 72.81 72.66 72.32 71.71 71.12 70.28 69.88 69.01 68.71 68.42 68.22 68.05 68.07 68.13 68.35 69.08 69.12 68.77
50.06 46.22 42.90 43.98 46.85 47.94 50.58 51.83 50.12 49.16 49.75 50.04 50.64 48.69 50.46 53.36 56.45 61.59 63.06 62.17 62.70 63.86 65.12 67.05 70.11 72.65 73.74 73.73 73.24 73.06 73.07 73.06 72.57 71.76 71.04 70.17 68.85 68.29 67.86 67.63 67.62 67.34 67.37 67.41 67.65 67.87 68.22 68.57 68.04
51.66 47.92 44.25 46.50 46.16 46.54 51.41 50.18 49.72 50.11 51.31 53.74 54.28 49.06 48.95 52.61 55.86 57.68 59.21 59.89 61.35 63.18 64.43 65.50 67.79 69.88 69.03 70.26 73.48 73.13 72.48 71.84 70.96 69.72 68.87 68.23 67.27 66.75 66.51 66.95 66.35 66.51 66.63 66.89 67.31 67.35 67.25 67.90 67.87
52.45 44.68 42.01 45.60 46.59 47.72 49.10 48.38 51.80 53.53 51.84 51.72 54.03 52.81 54.50 55.55 54.22 55.46 55.12 55.51 56.18 59.27 61.09 62.22 63.77 65.37 65.24 65.40 67.02 70.75 69.75 69.13 69.03 68.33 68.13 67.33 63.44 63.02 64.62 65.14 65.67 65.20 65.65 66.06 66.15 66.46 66.80 67.75 66.93
50.20 44.02 45.20 50.17 49.78 49.15 49.55 49.81 51.21 51.81 52.12 53.04 52.36 54.24 55.69 54.67 53.44 53.90 53.82 55.73 54.03 56.14 56.58 59.51 60.94 61.60 61.70 62.44 61.58 62.04 63.53 63.81 63.70 64.01 63.26 63.61 62.67 61.74 62.50 63.51 64.58 64.65 65.44 65.79 65.88 66.35 66.81 66.54 64.86
49.63 47.02 51.26 50.74 52.62 51.83 51.27 52.34 53.38 50.85 49.65 52.50 51.37 54.68 53.36 53.34 52.29 53.04 54.54 55.87 56.49 57.11 55.87 56.52 58.59 59.28 58.96 59.34 58.87 59.12 60.19 61.00 61.56 62.10 62.45 61.87 61.35 61.06 62.29 61.38 60.91 61.03 62.74 61.76 62.06 61.83 62.80 63.33 63.64
46.40 51.05 52.93 52.16 53.10 51.18 51.63 53.43 53.26 53.68 53.67 56.48 56.64 55.11 53.42 52.58 52.56 52.78 53.46 54.65 51.71 51.90 54.22 55.53 57.54 58.01 58.06 58.93 58.69 58.31 58.52 58.39 58.36 59.74 61.22 60.10 58.79 58.39 58.31 58.79 59.00 59.21 59.59 59.58 59.94 60.51 61.51 62.35 63.06
48.30 50.60 52.15 53.10 52.38 52.19 54.56 52.53 52.99 53.20 56.96 57.64 56.26 53.43 53.69 53.15 53.83 54.39 54.78 54.05 50.71 51.53 53.80 55.64 57.40 57.90 58.07 58.51 58.65 57.97 57.33 59.00 58.99 59.35 60.01 59.19 58.37 58.12 58.50 58.54 58.65 58.83 59.09 58.95 59.10 59.67 60.47 61.48 62.22
48.69 50.53 50.80 50.38 51.50 52.99 51.90 51.76 51.36 53.68 56.77 54.63 54.02 52.67 53.33 53.34 53.57 53.61 51.96 51.98 51.00 52.67 54.80 56.77 57.69 57.91 58.36 58.31 57.94 57.59 57.45 58.54 59.26 59.35 59.49 59.89 59.02 58.69 58.58 58.55 58.71 58.46 58.73 59.34 58.82 58.91 59.85 60.57 61.49
45.27 41.72 44.88 46.25 47.86 47.66 51.06 47.10 47.97 53.59 53.97 52.57 52.58 52.36 52.83 53.71 53.49 53.01 54.15 53.99 51.81 53.74 56.06 57.29 57.56 58.31 58.37 58.13 57.75 57.75 58.18 59.40 59.10 59.53 60.16 60.36 60.02 59.26 59.42 58.83 58.79 59.16 59.07 59.48 58.90 58.97 59.75 59.78 60.16
41.79 40.66 37.79 43.96 47.54 47.59 48.31 41.38 48.35 52.33 50.92 51.22 51.64 51.90 51.30 52.54 53.45 54.63 54.27 51.82 53.48 55.46 56.61 57.24 59.71 58.05 57.66 57.16 57.92 58.51 59.28 59.50 59.71 59.95 60.38 61.10 60.87 60.43 59.39 58.75 58.87 59.22 59.25 59.12 58.48 58.34 58.61 58.94 59.41
37.95 35.92 36.85 39.94 46.09 45.42 45.37 42.45 48.40 50.44 50.17 50.08 51.45 51.25 51.02 51.77 51.98 53.85 52.59 52.43 54.72 56.37 56.34 56.31 57.67 57.21 57.28 57.66 57.91 58.86 59.59 59.55 60.19 60.35 60.65 61.12 61.78 62.10 59.53 58.93 59.12 59.40 59.11 58.71 58.32 57.80 58.92 58.35 58.85
34.92 35.04 38.12 38.54 43.59 42.52 42.08 42.35 46.70 49.37 49.23 49.46 50.02 50.95 50.98 50.60 51.50 52.03 52.38 53.28 55.81 56.47 56.54 56.64 57.30 57.59 57.79 57.97 58.82 58.84 58.84 59.57 60.13 60.45 60.38 61.10 60.95 61.53 60.31 59.37 58.98 59.24 58.47 57.64 57.79 58.10 58.70 59.12 59.36
41.04 38.57 37.62 42.64 45.44 42.71 41.50 42.53 46.12 48.34 47.59 47.71 48.32 49.00 49.61 49.26 50.90 51.33 52.47 54.27 55.79 56.15 56.35 56.16 57.10 57.35 57.86 58.12 58.00 58.06 57.82 58.06 59.30 59.54 60.09 60.61 60.81 61.02 59.64 59.37 58.92 58.57 57.70 57.22 57.74 58.20 58.34 58.89 59.64
41.02 38.86 38.83 43.29 45.04 42.94 42.53 42.29 45.97 47.28 47.38 48.34 49.48 50.05 49.72 48.79 51.45 51.80 51.56 54.12 55.29 55.68 55.95 56.31 57.27 56.83 58.63 58.10 58.38 58.84 58.18 58.71 59.27 59.46 60.11 59.93 60.63 60.90 59.85 58.94 58.97 58.39 57.16 57.14 57.58 58.59 57.94 58.41 59.80
41.39 39.82 40.39 40.41 42.87 43.57 41.99 39.98 43.31 47.32 47.76 49.01 50.39 50.84 50.38 50.01 50.53 50.26 51.71 52.98 54.87 55.07 55.43 56.61 57.16 57.96 59.04 58.49 58.30 57.42 57.12 57.52 57.46 58.02 58.78 59.15 60.16 60.99 60.50 60.00 59.24 58.25 57.22 56.66 57.28 58.37 58.72 57.68 59.31
38.01 44.73 44.25 42.40 38.45 32.77 41.26 31.44 40.77 44.59 45.85 47.65 48.63 47.90 49.28 49.67 51.24 50.73 51.08 52.05 54.17 54.83 55.94 56.69 57.49 58.84 59.08 58.72 57.68 56.27 55.74 55.56 56.44 57.26 58.41 58.74 60.32 60.94 60.98 60.57 59.49 58.36 57.64 56.62 57.60 58.73 58.84 59.03 57.64
40.74 45.64 44.13 42.04 37.02 33.93 36.74 33.92 38.45 42.34 43.53 45.86 48.03 48.60 47.91 49.20 50.60 50.37 51.36 53.07 53.42 55.02 55.77 57.16 58.29 58.68 58.33 58.48 58.13 56.90 56.12 56.40 57.26 57.44 57.84 58.82 59.49 60.92 61.28 61.11 59.34 58.72 57.74 57.50 58.13 58.22 58.65 59.15 58.64
45.49 42.30 40.14 38.49 35.53 29.01 36.65 36.08 35.73 39.88 43.67 46.14 47.58 48.78 49.08 50.03 50.41 51.04 52.08 52.67 52.98 54.73 56.33 57.11 57.76 57.77 58.37 57.93 57.77 56.63 56.16 56.32 56.40 57.20 57.82 57.81 58.47 59.75 60.86 61.44 60.85 59.36 58.18 57.58 58.50 58.81 58.75 59.68 59.80
41.68 35.70 27.34 25.83 26.67 27.55 38.42 35.69 38.93 43.51 46.10 47.84 48.17 47.86 48.80 50.74 50.26 50.93 51.72 52.01 52.24 54.83 56.24 56.65 56.91 56.87 57.76 57.87 57.46 57.07 56.87 56.43 57.42 57.78 57.84 58.73 59.05 59.41 59.62 60.58 59.68 58.74 58.48 58.25 58.95 58.80 59.05 60.11 60.38
38.57 36.65 29.84 24.69 25.95 31.58 38.57 33.79 38.63 46.37 49.58 49.35 48.90 48.68 49.24 49.84 50.36 51.54 52.00 52.04 53.17 55.50 56.16 56.60 56.33 56.36 57.15 57.56 57.56 57.65 57.72 57.50 57.90 57.94 58.35 58.59 59.03 59.27 59.93 60.37 59.79 59.28 59.10 58.93 58.95 59.20 59.58 59.51 59.66
37.13 35.14 38.31 33.08 34.97 30.82 34.47 38.14 43.74 46.45 46.88 47.91 48.06 48.86 48.45 49.48 50.15 50.85 51.96 52.22 53.17 55.52 55.84 55.93 55.71 56.18 57.32 57.81 57.69 57.74 58.21 57.47 57.27 58.28 58.82 59.03 59.30 60.65 60.02 60.84 60.36 60.10 59.54 59.14 59.13 59.57 59.40 59.78 59.18
40.24 41.71 32.81 32.13 27.24 25.84 32.19 34.75 37.67 42.93 45.92 47.94 47.68 47.64 48.10 49.34 50.45 51.35 52.25 52.07 53.59 55.50 55.58 55.64 55.78 56.01 57.70 58.05 58.04 58.59 58.78 58.89 58.18 58.71 58.70 59.00 59.46 59.64 59.73 59.98 60.49 60.17 59.69 59.38 59.53 59.05 59.12 59.09 58.57
35.20 36.30 34.15 35.26 32.01 27.84 27.30 33.32 41.98 44.50 45.96 47.23 47.60 48.21 48.32 49.47 50.89 51.97 52.39 52.69 53.30 53.79 54.75 55.58 55.32 56.01 57.00 57.97 58.21 58.92 59.20 59.59 59.10 59.37 59.35 59.30 59.70 59.99 59.58 59.95 59.80 59.53 58.89 59.31 59.73 59.96 60.15 58.99 58.58
41.52 36.29 35.61 34.09 29.11 32.60 32.70 33.90 44.24 45.81 46.51 48.05 48.20 48.80 48.71 49.77 51.24 52.19 52.35 51.07 52.07 52.76 53.31 54.95 55.30 55.84 56.84 57.17 58.49 58.65 58.86 58.75 57.97 59.33 59.63 59.92 59.82 60.33 59.97 59.86 59.69 59.60 59.23 59.89 59.76 59.57 60.05 59.14 58.55

GFSSGP_sfc_wetblb_033.txt.gz
Wetbulb
67.85 65.92 63.41 61.94 55.04 55.36 51.33 53.84 57.26 56.96 56.73 55.52 55.40 55.54 55.15 55.97 56.33 51.66 64.11 67.43 67.97 65.60 68.49 72.61 74.03 73.22 72.88 72.76 72.37 71.95 71.36 70.80 69.71 69.14 68.61 68.16 67.73 67.28 66.91 66.75 66.49 65.91 66.07 66.18 66.61 66.50 66.12 65.57 66.42
66.21 62.82 61.94 61.91 53.98 50.16 51.87 56.15 55.92 57.25 58.67 58.66 54.29 53.18 52.34 53.36 57.06 59.93 64.90 67.12 67.36 66.42 69.10 70.72 74.01 73.48 73.35 73.05 72.75 72.26 71.94 71.31 70.50 69.58 69.15 68.96 68.78 68.27 68.29 67.95 67.81 67.57 67.55 67.37 67.72 67.64 67.32 67.11 66.07
63.35 62.23 60.65 57.91 55.01 50.96 52.00 55.83 57.01 58.14 58.75 57.53 53.38 54.84 54.45 55.09 59.26 61.86 67.33 67.99 66.37 67.12 69.94 72.03 74.06 73.56 73.43 73.35 73.13 72.71 72.29 71.89 70.68 70.16 69.86 70.12 69.80 69.71 69.86 69.26 68.76 68.35 68.14 67.92 68.02 67.87 68.15 68.21 67.90
60.89 62.39 60.82 53.62 51.33 54.67 54.70 57.16 57.67 57.74 58.37 55.59 54.62 54.04 56.66 59.59 60.17 63.28 67.87 68.84 66.29 66.77 69.62 71.84 74.11 73.81 73.78 73.48 73.21 72.86 72.61 72.27 71.77 70.97 71.01 70.51 70.53 70.58 70.19 69.62 69.41 68.77 68.71 68.53 68.48 68.59 68.59 69.07 68.52
63.49 61.59 53.51 52.15 52.37 54.99 56.72 58.46 57.93 56.47 56.34 56.52 54.54 54.15 55.68 58.65 61.63 63.81 67.56 68.65 66.93 66.73 68.73 70.68 73.88 74.13 74.01 73.81 73.38 73.28 73.18 72.81 72.49 71.90 71.52 71.39 71.23 70.56 70.22 69.88 69.49 69.36 68.92 68.62 68.58 68.72 69.58 69.71 69.16
58.48 58.59 51.06 48.40 51.02 54.54 56.48 58.28 57.22 56.75 55.98 55.53 53.86 54.16 56.61 59.68 61.48 63.98 67.33 68.52 68.61 67.68 68.81 70.67 73.44 74.07 73.73 73.66 73.56 73.63 73.27 73.00 72.73 72.61 72.14 71.90 71.21 70.71 69.92 69.20 68.91 68.86 68.82 68.46 68.40 68.90 69.50 69.32 69.28
56.44 54.78 49.41 50.09 49.79 52.06 54.94 58.04 56.21 55.77 55.68 55.49 55.88 53.77 57.73 58.75 61.70 64.84 67.27 68.55 68.42 69.04 68.77 70.96 72.12 73.72 73.80 73.60 73.60 73.52 73.39 72.99 72.84 72.76 72.66 71.69 71.01 70.69 69.22 68.60 68.26 68.16 68.31 67.94 67.93 68.69 68.52 68.31 68.34
58.72 55.68 49.25 50.56 48.86 49.98 56.13 56.34 56.73 56.66 56.01 57.45 57.12 54.35 56.51 59.50 61.54 65.32 67.39 67.50 67.48 68.10 69.11 70.04 71.65 72.08 71.90 72.19 73.94 73.66 73.46 73.13 73.17 72.90 71.54 70.47 69.56 68.38 67.51 67.88 66.87 66.97 66.99 67.13 67.39 67.67 67.93 67.69 67.86
57.60 51.26 47.47 48.42 49.33 51.39 56.08 55.30 56.75 57.83 57.59 57.62 58.71 58.48 59.98 60.20 60.75 63.72 64.90 65.40 66.20 66.58 67.95 68.92 69.67 71.00 71.46 71.43 72.18 73.33 72.66 72.14 72.04 70.56 69.61 69.51 67.85 67.59 67.19 66.92 66.60 66.38 65.92 65.78 66.30 66.61 66.68 67.08 66.98
55.57 51.04 49.98 53.17 53.64 53.40 54.70 55.23 56.11 56.04 56.66 57.40 58.24 59.62 59.51 59.61 60.14 61.53 62.92 63.09 64.41 65.11 66.57 67.82 69.08 70.35 71.14 70.40 71.32 70.79 69.54 69.03 69.50 69.19 68.93 68.54 68.21 67.78 66.46 66.16 66.07 65.59 65.11 65.54 66.04 66.31 66.33 67.06 67.37
55.63 51.36 54.26 54.36 55.30 55.73 55.17 55.38 57.40 55.37 54.27 56.95 57.17 59.34 61.14 60.50 60.20 60.44 61.97 62.80 63.55 64.99 66.05 66.91 68.61 70.35 70.24 68.98 68.36 66.82 67.38 67.54 67.96 68.68 69.06 68.33 67.41 67.65 66.96 66.42 65.99 65.86 65.26 65.96 65.76 66.13 65.75 65.70 66.34
52.12 54.92 55.73 56.12 56.67 55.38 54.48 56.59 55.43 56.63 56.89 59.41 60.06 60.64 60.58 59.97 59.62 59.67 60.39 62.20 63.23 63.70 64.88 65.96 67.62 68.44 68.68 67.10 65.78 65.92 65.68 66.15 66.10 66.67 68.25 67.81 66.71 66.75 66.10 65.52 65.39 65.25 64.63 64.58 64.84 64.48 64.65 64.83 65.44
52.66 54.18 55.99 57.02 56.97 56.49 56.75 55.04 55.14 55.50 58.26 59.79 60.41 60.41 59.45 59.55 60.36 60.92 61.11 62.20 62.94 61.97 63.20 64.40 66.50 66.81 66.41 66.24 65.91 65.74 65.75 65.64 66.02 65.56 66.03 66.23 65.91 66.17 65.70 64.95 64.68 64.57 64.60 64.17 64.20 64.13 63.97 64.17 64.86
53.99 53.68 54.18 55.61 55.56 55.88 54.18 54.29 54.45 54.97 57.53 57.07 57.51 58.17 58.94 59.37 60.02 60.65 60.60 60.96 61.55 61.25 61.37 63.65 64.65 65.73 65.74 65.81 66.41 65.97 66.08 66.03 65.40 65.40 65.80 66.40 66.00 65.67 64.92 64.56 64.40 64.51 64.65 64.52 64.20 63.89 63.62 63.64 64.58
51.64 48.92 51.13 51.42 52.91 51.65 52.13 48.39 49.24 53.44 54.99 55.09 56.20 56.96 57.99 59.30 59.97 59.84 61.92 61.87 62.46 60.97 61.63 62.43 63.97 65.13 65.40 65.90 65.98 65.94 65.68 65.18 65.05 65.25 66.29 66.07 66.07 65.68 65.35 64.78 64.66 64.54 64.15 65.27 64.46 64.54 63.96 63.52 64.20
47.03 47.01 43.98 49.22 49.54 49.73 49.61 44.69 50.19 53.55 53.77 53.77 55.04 56.37 57.30 58.80 59.89 60.97 61.92 62.69 62.41 60.53 61.38 62.51 62.55 64.31 65.49 65.64 65.60 65.25 65.34 65.20 65.46 66.21 66.51 66.53 66.52 66.31 65.98 65.05 64.77 65.52 64.78 64.18 63.92 63.95 62.74 62.92 63.12
45.60 42.29 42.87 45.07 48.49 48.54 48.94 46.24 50.63 53.10 52.73 52.81 54.16 55.25 56.15 57.65 59.66 61.79 61.79 61.59 60.20 61.15 62.40 62.43 63.76 63.97 65.01 65.64 65.34 65.71 66.23 65.88 66.17 66.48 66.46 66.52 66.24 66.34 65.73 65.44 65.08 65.51 64.23 63.94 63.77 63.55 63.24 62.16 62.78
40.65 40.33 42.92 42.83 47.50 47.15 46.51 46.69 49.67 51.99 52.48 52.85 54.32 55.47 56.38 57.23 58.82 61.55 60.86 60.21 60.71 62.17 63.24 63.85 64.09 64.97 65.18 64.98 65.33 65.78 65.57 65.74 66.22 66.24 66.43 66.16 66.23 65.88 65.84 65.45 65.12 64.61 64.03 63.60 62.78 62.65 62.89 62.58 63.35
46.42 44.34 43.94 45.99 47.30 46.20 46.91 47.63 49.63 52.17 52.53 52.68 53.82 54.82 56.14 57.44 60.31 58.48 58.20 59.59 60.59 61.91 62.52 63.83 63.62 64.52 64.18 64.13 64.08 64.68 64.09 65.02 65.45 65.88 66.31 65.71 65.83 65.59 65.49 64.97 64.79 64.42 63.62 63.68 63.46 62.28 62.28 62.37 63.50
43.04 42.13 42.57 45.22 47.31 46.67 46.92 46.54 49.93 51.14 51.34 52.93 53.66 54.45 55.94 57.67 58.45 57.22 56.97 58.78 60.33 61.03 62.30 63.13 63.99 64.25 64.75 65.11 65.68 66.31 66.05 65.61 65.81 66.07 66.05 65.68 64.84 65.43 65.24 65.06 63.99 64.41 63.18 63.13 62.65 62.69 61.26 62.01 62.90
42.05 41.63 42.20 42.32 46.44 47.82 46.41 45.14 47.53 50.83 52.28 52.80 54.74 56.10 57.17 57.67 57.74 57.01 56.76 58.62 60.01 60.80 62.21 63.21 64.08 64.51 65.34 65.86 65.27 65.42 64.50 64.55 63.94 64.35 65.06 65.18 64.42 65.11 65.51 64.61 64.24 64.23 63.31 61.94 62.48 63.00 63.07 61.21 62.42
39.94 44.97 44.03 43.24 42.08 40.04 46.51 38.60 45.93 48.07 48.78 52.20 54.76 56.46 56.91 56.10 57.16 57.21 57.38 58.18 59.60 61.17 63.05 63.78 64.28 64.75 65.79 65.69 65.18 64.88 63.62 62.90 64.08 64.46 64.96 64.54 64.62 64.64 64.88 64.64 64.63 63.88 63.19 62.62 62.71 63.48 64.41 63.90 59.77
42.49 46.81 44.65 43.84 42.67 42.57 42.93 39.65 44.44 48.06 46.67 49.34 52.71 56.12 56.78 56.27 57.20 56.88 57.44 58.80 60.40 61.55 62.41 63.65 64.46 65.54 65.55 65.67 65.53 64.40 63.47 64.01 64.43 64.61 63.61 64.47 65.68 64.99 64.71 64.98 64.00 64.13 63.29 63.40 63.37 63.72 63.54 64.09 63.64
47.17 45.39 45.17 44.97 43.28 36.48 41.71 40.37 41.76 45.05 46.88 49.96 53.38 55.80 55.32 56.24 56.31 56.75 58.25 59.56 60.36 61.80 62.47 63.49 64.31 65.10 65.23 65.12 64.92 64.06 63.36 62.82 63.40 63.79 64.19 63.73 64.24 64.85 65.11 65.19 65.03 64.71 63.82 63.38 63.31 64.25 64.09 64.01 64.65
45.79 42.97 36.37 34.48 35.00 35.44 43.50 40.42 41.78 48.34 50.60 52.16 53.33 55.48 55.76 56.77 56.23 56.34 57.17 58.54 59.62 60.74 62.01 63.27 64.25 64.19 64.92 64.60 64.07 63.30 63.36 62.92 62.97 63.35 63.83 61.36 61.91 64.29 65.03 65.55 65.38 64.52 64.63 63.95 63.93 64.01 64.34 64.33 64.89
42.98 43.17 38.33 32.04 34.16 36.75 42.35 37.51 41.59 50.49 52.10 53.59 54.70 56.13 56.21 56.42 56.68 56.66 57.86 58.86 59.50 60.89 62.18 62.93 63.49 63.79 64.36 64.42 63.55 63.60 63.14 64.15 64.18 63.78 64.01 63.60 63.57 65.02 65.47 65.57 65.64 64.95 64.48 64.01 64.67 63.94 64.16 64.78 64.12
42.16 39.85 45.13 40.24 40.88 38.33 40.54 43.60 49.15 51.56 52.14 53.19 53.59 54.77 55.66 56.40 56.43 56.74 57.81 58.88 60.03 60.96 62.52 62.96 63.28 63.78 63.90 64.16 63.83 63.67 63.83 63.75 63.33 63.75 65.09 64.97 65.40 65.29 65.21 65.42 64.78 64.75 64.26 63.99 64.46 63.68 63.90 62.55 61.89
44.46 46.11 37.69 40.11 33.21 31.55 37.94 41.06 42.50 48.57 50.44 53.25 53.94 54.68 55.29 56.24 56.35 56.69 57.64 58.79 60.26 61.75 62.83 63.08 63.59 63.55 63.98 64.23 64.18 64.01 64.58 64.65 63.47 64.64 64.06 64.47 65.34 65.18 64.97 65.30 64.57 64.87 64.16 64.13 64.56 63.83 64.31 63.34 63.33
41.23 40.87 42.11 42.37 40.49 35.08 33.45 39.04 51.04 51.16 52.82 53.70 55.56 56.31 55.31 55.99 56.38 56.92 58.01 59.11 60.51 62.03 62.04 62.51 62.63 62.77 63.59 63.80 64.11 64.10 64.75 64.26 63.73 64.20 64.61 64.76 65.29 64.88 64.60 64.84 64.46 64.40 64.17 64.14 64.13 63.90 63.81 63.41 63.54
43.89 42.65 42.82 37.86 36.15 39.37 39.62 39.74 49.98 52.88 52.99 54.58 55.57 55.36 55.93 56.98 57.28 57.76 58.49 58.95 59.70 60.89 61.46 61.90 62.60 62.61 63.67 63.70 64.11 64.09 64.16 63.34 63.56 64.33 64.47 64.89 64.71 64.82 64.92 64.81 64.19 63.82 63.87 63.72 62.85 62.82 62.41 62.11 61.63

GFSSGP_sfc_wetblb_036.txt.gz
Wetbulb
67.59 65.94 66.35 64.89 56.73 54.11 51.97 55.84 60.33 59.12 59.50 59.99 60.04 58.46 57.39 58.90 56.70 55.15 66.61 71.09 71.17 68.43 71.71 73.67 73.92 73.43 73.18 72.98 72.54 72.19 71.70 70.97 69.72 69.23 68.71 68.33 67.64 67.19 66.85 66.61 66.37 66.31 66.28 66.15 66.28 66.55 66.63 65.92 66.24
63.93 63.19 65.05 63.91 52.63 51.01 53.38 59.17 57.97 59.42 60.11 61.22 60.88 59.76 57.25 56.83 60.05 61.09 65.63 70.63 70.86 68.72 71.68 72.24 74.05 73.32 73.46 73.27 73.00 72.48 72.06 71.20 70.21 69.90 69.51 69.28 68.85 68.51 68.24 67.89 67.81 67.89 67.64 67.73 67.60 67.73 67.49 67.44 66.87
64.19 65.58 62.31 58.85 56.70 53.47 55.30 58.53 59.13 59.95 60.53 59.69 58.47 58.57 58.29 58.21 60.74 62.40 69.17 71.10 70.86 69.36 70.90 72.38 74.22 73.47 73.54 73.64 73.35 73.01 72.68 71.98 70.81 70.30 69.97 69.68 69.41 69.20 69.40 68.93 68.88 69.04 68.87 68.59 68.38 68.24 68.53 68.44 68.36
62.62 64.05 62.65 56.00 53.68 57.33 58.53 59.15 60.01 59.60 60.28 59.79 59.22 57.49 59.80 62.31 62.11 64.57 69.89 70.88 69.99 69.46 70.70 72.69 74.20 73.68 73.77 73.65 73.48 73.26 72.86 72.26 71.58 70.70 70.68 70.58 70.21 71.11 71.24 69.78 69.76 69.77 69.27 69.04 68.99 68.70 68.62 68.93 69.17
64.22 62.28 54.69 53.34 53.56 56.70 60.55 61.46 60.59 59.09 58.86 58.72 58.36 57.10 58.60 62.55 63.66 65.26 69.63 70.41 69.10 69.77 70.21 72.73 74.08 73.98 74.03 73.92 73.70 73.38 73.18 72.69 72.56 71.79 71.52 71.27 71.56 71.76 70.63 70.54 70.28 70.13 69.93 69.31 69.27 69.01 69.81 69.59 69.65
59.58 60.01 52.82 51.07 52.82 56.70 59.13 60.06 59.69 59.46 59.62 58.62 57.04 57.39 59.26 63.56 63.68 65.23 68.48 70.63 69.63 69.57 70.89 73.01 74.00 74.20 74.03 73.88 73.68 73.40 73.13 72.93 72.98 72.81 72.44 72.31 72.31 71.05 70.86 70.45 69.98 69.49 69.46 69.45 69.11 69.54 69.89 69.41 69.46
57.99 55.88 51.35 52.21 52.96 54.36 56.99 60.00 58.96 59.47 58.70 57.95 60.04 56.58 60.20 62.60 64.32 66.07 67.85 70.13 70.59 70.28 70.40 72.76 73.79 74.35 74.15 73.95 73.53 73.38 73.24 73.34 73.21 72.94 72.89 72.75 71.72 71.08 70.19 69.70 69.01 68.76 68.78 68.83 68.54 68.38 68.44 68.61 68.23
59.40 56.95 52.93 53.18 52.02 52.54 56.99 58.82 60.13 59.21 58.45 61.26 60.58 57.59 58.60 63.76 64.93 65.52 67.38 68.14 69.70 70.25 70.17 71.35 73.27 73.05 73.53 73.37 73.93 73.77 73.88 73.68 73.38 73.14 72.87 72.55 71.25 69.88 69.01 69.02 67.94 67.33 67.23 67.34 67.68 67.76 68.15 68.53 68.03
61.34 53.79 50.98 52.31 52.63 54.30 58.10 57.18 59.59 60.99 59.59 60.15 61.47 61.48 62.85 64.02 64.47 65.45 66.27 66.98 67.84 68.43 70.12 70.64 71.59 72.29 72.90 72.00 72.43 73.78 73.48 72.93 73.00 72.21 71.99 71.55 69.15 68.99 69.21 69.12 67.36 67.01 66.70 66.44 66.34 66.49 66.93 67.29 67.11
57.87 53.68 53.08 56.41 56.76 55.83 57.43 57.66 58.07 57.93 58.29 58.62 59.68 62.55 63.33 64.39 64.79 64.33 64.13 64.97 66.25 67.09 68.58 70.21 71.32 71.84 72.14 70.66 72.43 73.36 72.03 71.12 71.25 71.00 70.35 70.23 69.95 69.64 68.75 68.48 66.47 66.61 66.47 65.91 65.96 66.10 66.61 66.91 66.60
58.25 54.13 57.21 57.76 58.30 58.48 57.55 57.66 59.15 57.47 56.47 58.67 58.31 60.57 62.52 63.25 64.42 64.77 64.43 64.66 65.31 67.36 68.33 69.30 71.42 72.08 71.98 71.18 71.64 71.39 70.30 70.07 70.13 70.38 70.49 70.57 69.27 69.27 68.78 68.13 67.77 68.46 67.33 66.70 66.97 67.34 67.36 66.47 66.35
55.40 57.87 58.25 58.48 59.23 58.42 57.28 59.13 57.72 58.46 58.75 60.96 61.08 61.61 61.79 62.09 63.18 63.88 64.45 65.26 65.06 65.75 67.91 69.42 70.61 71.75 72.64 71.37 70.85 69.97 68.23 68.56 68.05 68.21 70.12 69.67 68.63 68.68 68.07 67.03 66.96 67.62 66.97 66.48 66.39 65.95 66.57 66.65 66.46
55.57 57.13 58.40 59.15 59.18 58.91 59.15 57.74 57.70 58.16 60.15 61.29 61.04 60.61 60.43 61.18 61.90 63.43 64.66 65.98 66.01 65.30 67.48 69.15 70.55 71.71 72.38 72.22 69.96 68.49 68.08 67.61 67.87 68.24 69.06 68.90 68.23 68.31 68.10 68.41 67.57 66.45 66.04 65.86 65.98 65.88 66.07 65.98 66.12
55.96 56.08 56.68 58.35 58.63 59.02 56.97 57.04 57.83 58.40 60.16 59.07 58.65 58.54 59.29 59.47 59.72 61.18 62.99 64.93 66.74 66.63 67.58 68.89 69.72 71.61 71.78 71.14 70.05 68.81 68.97 68.12 68.21 68.10 68.59 69.10 68.27 68.45 68.02 67.28 67.27 66.82 66.92 66.80 66.95 65.79 65.60 65.41 65.26
55.52 52.91 54.83 55.99 56.89 56.39 57.88 54.32 54.55 57.47 57.71 57.00 56.97 58.33 58.50 58.57 59.58 60.90 62.77 65.05 67.37 67.66 68.17 68.09 69.24 71.02 70.84 69.95 69.44 68.96 68.17 68.28 67.47 67.96 69.21 69.05 69.15 68.70 68.40 67.34 66.75 66.63 67.35 67.90 67.32 66.80 66.14 65.36 65.58
51.42 52.70 49.03 54.07 55.14 55.45 54.54 49.49 55.24 57.20 56.72 56.02 56.83 57.25 57.35 58.44 59.93 61.79 63.79 65.53 67.68 68.30 67.54 67.25 67.70 69.52 69.89 69.32 68.99 68.17 68.20 67.97 67.76 68.37 68.78 69.35 69.43 69.04 68.63 67.84 66.97 67.26 67.30 67.30 65.93 66.36 64.96 64.70 63.65
50.15 46.44 48.27 50.22 54.24 53.26 51.99 50.23 55.00 56.73 56.10 55.73 56.82 57.87 57.14 58.08 60.84 63.33 64.56 65.88 67.16 68.01 67.33 66.45 67.62 68.10 68.72 69.20 68.78 68.74 68.91 68.22 68.11 68.69 68.66 68.88 69.07 68.66 67.98 66.65 66.46 67.06 66.45 66.54 66.26 66.00 64.48 64.98 64.51
46.21 46.62 48.66 49.53 53.06 51.16 50.65 50.82 53.93 55.17 55.26 55.97 57.03 57.51 57.42 58.12 60.05 62.69 64.52 65.77 66.25 66.79 66.85 67.22 66.94 68.13 68.64 68.43 68.48 67.63 67.48 67.89 68.41 68.20 68.35 68.58 68.62 67.93 67.16 66.49 66.54 66.95 66.67 66.28 65.94 65.49 64.99 64.26 64.44
49.83 49.47 48.96 51.05 53.31 51.49 51.10 51.46 53.26 55.29 55.91 56.25 57.10 57.32 57.58 59.72 61.67 63.42 63.92 64.09 64.44 65.62 66.21 66.82 66.63 68.07 67.57 67.01 65.88 65.67 65.69 66.94 67.15 67.83 68.43 68.65 68.10 67.28 66.65 66.23 65.85 66.27 65.33 65.93 65.85 64.79 62.93 63.78 65.21
48.28 47.78 48.50 51.38 53.15 52.60 50.50 50.29 54.12 55.63 56.06 56.81 56.47 56.97 58.29 60.30 61.99 62.92 63.12 63.19 64.55 65.22 66.35 66.87 67.28 67.99 67.76 67.07 67.22 67.35 67.46 67.43 67.48 68.33 68.32 68.43 67.78 67.70 66.91 65.91 65.83 66.33 65.32 65.39 64.81 64.43 62.10 62.36 64.76
46.70 46.47 47.52 47.81 50.99 52.07 49.75 47.96 51.09 54.83 56.37 56.77 56.97 57.40 57.60 59.95 61.60 62.76 62.14 63.38 64.35 64.87 65.91 66.47 67.48 67.81 68.25 68.36 68.12 67.73 67.97 67.24 66.28 66.58 66.69 67.43 67.09 67.14 67.13 66.97 66.55 65.92 66.42 65.56 64.96 64.05 63.55 62.99 64.86
43.96 48.47 47.33 46.48 45.75 42.66 49.62 43.28 50.07 53.14 53.90 55.27 56.19 56.69 58.12 60.82 61.64 62.61 62.81 63.26 64.12 64.88 66.17 67.17 67.54 67.88 68.08 68.79 67.56 67.15 65.23 64.41 67.34 66.55 67.93 67.04 67.05 66.85 66.63 66.57 66.35 66.09 66.92 65.54 64.61 64.66 65.57 65.38 62.75
45.33 47.78 47.36 46.95 45.55 45.58 45.92 43.90 48.18 52.74 51.24 53.83 55.63 56.58 58.75 61.00 61.83 62.25 62.77 63.30 64.36 65.16 65.77 66.89 67.52 67.57 68.28 68.56 68.16 66.73 65.74 66.53 66.66 66.73 66.08 67.23 67.54 67.08 67.01 67.17 66.50 66.41 66.14 65.57 65.12 65.20 66.20 66.49 63.30
48.39 46.38 47.42 47.63 46.04 40.20 44.95 44.71 45.70 49.91 52.14 54.45 55.89 55.96 59.42 61.36 61.77 62.48 63.32 63.72 64.17 65.21 65.86 66.42 66.85 67.44 68.22 67.96 67.81 66.47 65.91 65.70 65.47 65.80 65.62 67.20 68.02 67.33 66.83 66.52 67.01 67.01 66.22 65.51 65.21 66.21 66.32 66.10 65.13
46.78 44.96 39.98 38.58 39.43 38.77 47.46 45.49 46.68 52.62 53.74 53.95 54.31 56.69 60.49 61.53 61.70 61.62 62.06 62.74 63.45 64.11 65.13 65.78 66.33 66.35 67.46 67.14 66.84 66.19 66.53 66.00 65.58 64.96 66.11 65.16 65.16 66.89 66.64 67.30 67.25 67.02 66.46 65.96 66.04 66.41 66.17 66.62 65.20
44.91 45.67 40.88 35.22 38.12 41.60 47.46 43.01 47.52 53.24 55.13 55.85 55.99 56.65 60.65 61.47 62.08 62.10 62.48 63.10 63.40 64.01 64.91 65.28 65.69 65.67 66.47 66.60 66.21 66.36 66.57 66.64 66.41 66.40 66.50 66.04 66.27 67.32 67.35 67.23 67.16 66.53 66.31 65.74 66.29 65.81 66.47 66.43 66.02
44.73 43.44 48.66 45.37 46.74 42.14 46.22 48.46 50.01 52.53 53.28 54.00 55.80 56.15 59.36 61.15 61.70 61.86 62.67 63.40 63.42 64.38 65.06 65.30 65.16 65.21 65.93 66.35 66.31 66.35 66.83 66.63 66.12 66.29 67.73 67.47 67.59 67.00 66.98 67.01 66.61 66.45 66.52 65.74 66.57 65.87 66.07 66.33 66.34
47.79 49.02 43.13 44.60 38.04 36.97 42.70 43.98 43.90 49.89 51.96 53.58 55.39 57.30 60.01 61.47 61.53 61.92 62.57 62.97 64.08 64.85 65.66 65.52 65.04 65.36 65.73 66.36 66.40 66.78 66.55 67.22 67.08 66.90 66.09 67.01 66.85 66.24 66.82 66.56 66.71 66.27 65.89 65.62 65.96 65.95 66.28 64.49 65.94
44.77 44.96 46.32 46.82 44.84 39.93 39.06 42.04 50.27 52.15 53.09 54.71 57.38 58.99 60.83 61.05 61.18 61.74 62.30 63.38 64.25 65.01 64.98 64.44 64.80 65.09 65.56 65.83 66.50 66.61 67.17 66.79 66.23 66.16 66.70 66.61 66.63 66.74 66.37 66.28 65.88 65.85 65.42 65.76 65.69 65.47 65.41 65.25 65.85
47.45 45.93 46.59 41.96 40.90 44.15 43.82 42.51 52.36 54.81 56.00 57.32 57.72 59.61 61.15 61.72 61.65 62.02 62.34 63.18 63.69 64.41 64.15 63.68 64.44 64.54 65.43 65.70 66.20 66.33 66.54 66.60 65.88 65.69 66.32 66.84 66.02 66.53 66.50 66.20 65.51 65.59 65.70 65.90 65.32 64.62 64.74 64.79 64.29

GFSSGP_sfc_wetblb_042.txt.gz
Wetbulb
66.84 65.19 65.05 63.96 54.84 52.18 49.63 52.79 57.59 58.54 58.32 61.26 60.44 58.75 58.01 58.90 56.48 55.13 68.85 68.89 71.62 72.26 70.69 71.43 73.13 73.07 72.95 72.73 72.46 72.09 71.77 71.15 70.23 69.55 68.56 67.90 67.18 66.45 66.21 65.80 65.56 65.66 65.71 65.86 65.92 66.27 66.72 66.75 66.74
62.26 61.28 63.60 59.88 51.41 48.26 49.55 54.57 56.60 58.76 61.62 61.81 60.44 60.42 59.12 57.34 61.17 64.12 65.97 69.39 71.09 73.04 71.93 70.41 73.24 73.14 73.46 73.19 72.84 72.33 72.10 71.57 70.92 70.26 69.42 68.76 68.21 67.68 67.31 67.23 66.97 66.64 67.18 66.93 66.98 67.23 67.47 67.74 68.04
63.51 62.30 58.70 54.70 52.72 48.86 50.81 57.35 58.61 59.80 62.45 60.06 59.08 61.30 59.56 58.75 62.61 65.19 69.54 70.29 70.27 73.35 72.80 71.02 73.54 73.24 73.64 73.51 73.15 72.83 72.43 72.03 71.32 70.25 70.07 69.95 69.46 69.22 69.10 69.00 68.71 68.82 68.98 68.86 68.84 68.68 68.47 68.57 68.67
63.12 60.21 59.06 53.53 51.99 54.57 55.19 59.29 61.00 60.33 61.05 61.37 60.44 57.69 61.32 64.18 63.40 65.56 68.76 68.84 68.19 71.48 72.90 73.44 73.27 73.34 73.69 73.74 73.40 73.17 72.92 72.40 72.10 71.29 71.17 71.01 70.66 70.80 70.96 70.10 69.30 69.31 69.59 69.94 69.94 69.53 69.29 69.13 69.94
62.53 59.35 52.90 50.92 51.61 54.88 56.63 58.96 60.68 59.95 59.89 59.88 60.26 57.38 59.50 63.25 65.56 66.01 68.53 68.92 68.14 68.19 72.31 73.60 73.24 73.64 73.92 74.02 73.74 73.32 73.02 72.60 72.21 72.15 71.95 71.49 71.35 71.65 71.59 71.11 70.53 70.73 70.73 70.57 70.45 70.19 70.24 70.32 70.33
57.01 57.49 50.62 49.84 52.51 55.42 57.52 59.00 60.14 59.99 60.03 59.95 59.36 58.78 59.60 64.23 64.86 65.94 67.62 69.39 68.73 69.24 71.52 74.20 73.44 73.60 73.60 73.72 73.84 73.32 73.12 72.77 72.72 72.70 72.50 72.08 72.15 71.96 71.73 71.59 71.09 71.17 70.74 70.13 69.78 70.38 70.08 69.50 69.40
55.63 53.53 50.76 51.87 52.76 54.41 56.35 59.89 58.31 58.11 58.01 58.23 60.71 57.28 60.57 63.10 65.66 68.51 68.81 69.70 70.44 70.36 70.71 74.40 73.46 73.38 73.92 73.69 73.49 73.49 73.16 73.14 73.11 72.79 72.80 72.80 72.50 72.13 71.59 71.61 71.22 70.81 70.59 70.07 69.42 69.26 69.15 68.87 68.72
57.59 55.26 51.44 53.14 52.93 53.18 57.31 57.69 59.10 58.20 57.65 62.46 62.27 57.49 58.63 64.84 67.20 67.07 66.41 66.73 68.43 69.42 69.02 73.96 73.73 72.87 72.45 72.67 73.81 73.69 73.61 73.30 73.28 73.15 73.10 72.84 72.23 71.79 71.91 71.39 71.15 70.67 70.35 69.00 68.01 67.76 68.15 69.04 69.26
59.05 51.12 49.46 51.53 52.52 54.33 58.46 56.66 59.35 60.82 59.10 60.52 60.85 60.66 62.38 63.92 65.12 64.68 64.94 65.03 65.71 67.30 69.35 70.21 73.90 73.43 72.49 71.35 72.68 73.84 73.52 73.36 73.33 73.19 72.79 72.20 69.64 68.02 69.57 70.67 70.81 70.87 69.78 68.41 67.98 67.62 67.60 67.99 68.31
54.89 50.97 51.22 55.32 56.28 56.11 57.59 57.62 58.21 58.43 58.76 58.91 59.98 62.05 63.27 63.53 63.79 63.57 63.49 62.94 64.07 65.17 67.66 69.10 69.80 72.36 72.72 71.73 71.47 72.48 72.16 71.84 71.69 70.83 70.64 70.53 69.57 70.33 69.63 70.40 71.76 69.39 69.42 68.57 68.25 67.55 67.21 66.60 64.71
56.37 52.31 54.92 56.32 58.18 58.51 57.43 57.49 59.36 57.73 56.44 58.71 58.53 60.23 62.00 63.05 63.75 63.60 62.33 62.70 63.47 65.18 65.97 69.06 70.10 72.33 71.93 70.87 70.97 72.47 71.34 70.39 70.26 70.45 70.56 70.61 70.97 70.59 70.35 68.41 67.75 67.41 68.60 66.89 67.16 66.13 65.15 64.85 63.96
54.05 57.15 57.12 58.02 59.04 58.64 57.40 58.99 58.06 58.74 58.80 61.61 62.18 62.52 61.99 62.44 62.87 62.73 62.51 62.31 62.64 63.56 66.51 69.16 70.80 71.89 71.41 71.19 71.51 72.24 71.64 71.09 70.20 70.74 71.81 71.86 70.72 70.21 69.36 68.63 68.54 68.00 67.05 66.95 67.29 65.29 65.80 65.56 65.85
53.59 54.53 57.01 58.77 59.07 58.66 59.23 57.96 58.23 58.56 61.24 62.10 62.60 62.67 62.44 62.61 63.32 63.82 63.83 64.08 65.05 64.55 65.38 67.98 71.81 71.37 72.68 72.95 71.65 71.19 71.57 71.51 71.19 71.17 71.65 70.14 68.97 69.26 70.57 69.38 68.79 68.16 67.95 66.76 66.05 66.20 66.07 65.59 64.72
55.88 55.33 55.71 57.08 57.36 57.97 56.48 56.96 57.85 59.35 61.75 61.21 61.90 61.92 62.22 62.40 62.93 62.67 64.43 66.10 67.55 68.51 69.32 69.59 71.85 72.24 73.11 71.33 73.77 73.46 73.93 72.44 71.69 70.71 70.28 70.34 69.87 70.37 69.28 69.75 68.47 68.41 69.00 66.95 66.71 65.77 65.60 64.53 64.39
55.38 53.36 55.32 55.92 56.34 56.32 57.80 54.93 55.32 59.24 60.27 59.40 60.62 61.80 62.04 62.58 62.71 62.07 65.14 67.17 69.27 68.60 70.80 70.45 73.42 73.48 72.55 72.76 72.14 75.05 73.41 71.75 70.04 69.91 71.24 71.20 70.63 70.33 69.94 68.54 68.50 68.88 68.33 67.81 66.79 66.33 66.10 65.73 64.49
51.66 52.55 49.59 54.43 56.05 56.76 56.11 50.68 56.67 59.10 58.65 58.61 59.96 60.75 61.52 62.15 62.15 64.93 65.13 66.40 69.26 70.39 69.34 72.31 71.28 73.28 73.26 73.27 73.09 72.87 72.26 70.56 71.30 70.63 70.70 70.65 70.94 70.53 69.89 67.78 67.48 68.79 68.40 67.07 66.73 65.82 65.15 64.79 64.75
49.74 46.84 48.04 50.42 55.27 54.72 54.97 52.17 56.84 59.10 58.56 58.43 59.40 59.32 60.00 60.68 62.76 65.67 66.94 66.41 69.02 71.53 72.11 73.09 73.15 71.99 72.58 73.98 73.55 73.30 72.49 70.04 69.54 70.66 70.37 70.78 70.22 70.03 69.05 67.93 68.54 68.42 67.63 66.64 65.99 65.74 64.85 63.86 63.23
44.38 45.36 47.71 48.26 52.79 54.05 52.87 52.67 56.11 58.04 57.91 58.14 58.53 59.05 59.25 60.17 61.72 64.62 65.95 67.50 72.84 71.46 72.37 73.85 72.70 73.17 72.69 72.75 73.14 71.17 70.23 70.29 71.24 70.39 69.81 70.97 70.18 69.36 68.88 68.55 68.07 67.67 66.62 65.70 65.70 64.38 64.85 63.96 63.58
48.13 47.82 46.66 50.61 52.96 51.82 51.96 52.36 54.71 57.29 57.60 57.33 58.26 58.15 59.11 60.37 62.51 64.46 65.44 71.03 69.45 70.35 71.80 72.56 71.85 73.15 71.66 70.82 69.00 68.22 67.00 68.54 68.62 69.77 70.58 69.90 69.77 69.01 68.57 68.44 67.30 66.80 65.75 65.29 65.33 64.21 63.32 62.80 63.52
46.50 46.18 46.61 50.15 51.56 51.37 51.68 51.93 55.47 56.89 57.01 57.80 57.97 58.36 59.04 60.37 62.18 64.09 67.23 68.84 69.09 69.94 71.10 71.04 71.02 72.56 70.90 70.34 69.13 68.54 68.13 67.88 68.04 69.76 69.93 69.89 68.72 69.28 68.18 67.56 66.50 66.37 65.41 65.02 64.64 64.19 62.76 62.67 63.24
45.88 45.16 46.46 46.44 49.33 51.33 50.99 49.87 52.98 55.70 57.40 58.24 58.74 59.39 60.21 59.95 59.09 61.56 66.41 67.66 68.09 68.20 69.04 69.49 70.60 70.77 70.56 71.06 69.63 71.82 71.37 69.75 68.57 68.42 67.97 68.79 68.62 68.60 67.51 66.32 66.06 66.13 66.40 64.96 64.77 64.37 62.87 60.69 62.16
43.32 47.73 47.00 46.91 46.15 43.64 50.42 42.73 50.95 53.66 54.95 56.91 57.84 58.60 58.83 59.29 60.56 63.54 65.96 66.67 67.53 67.57 68.84 69.39 70.07 69.84 70.34 71.88 70.42 70.16 67.68 65.85 68.40 68.92 68.29 68.40 68.77 67.39 67.12 66.75 66.55 66.63 65.71 65.49 65.09 65.26 63.74 62.65 60.17
44.86 48.05 47.48 46.97 46.04 46.55 46.38 44.38 47.68 52.79 52.13 54.44 56.68 58.03 59.00 59.68 62.12 62.66 66.03 66.65 67.23 68.01 68.15 69.05 69.64 69.21 70.62 70.93 70.59 69.33 68.99 68.49 68.48 68.58 67.64 68.66 68.31 67.65 66.98 66.35 66.73 66.11 66.69 64.98 64.53 64.34 63.67 64.18 62.73
49.08 46.69 46.52 47.08 46.41 40.94 45.94 44.91 45.06 48.70 51.65 53.33 55.88 56.80 58.07 59.87 61.30 65.04 66.44 66.84 66.72 67.46 67.77 68.60 68.43 68.84 69.68 70.05 70.83 70.46 68.97 68.65 67.68 67.58 67.13 67.22 66.64 67.53 66.10 66.73 66.68 67.05 65.70 64.84 64.64 64.93 64.34 62.98 63.58
46.28 45.73 39.26 37.97 38.73 38.53 46.95 44.73 46.81 51.75 54.01 54.87 55.43 57.18 58.82 60.90 61.66 64.54 64.97 65.06 65.68 66.18 67.16 67.63 67.74 67.75 68.64 69.08 69.28 68.80 69.28 69.23 68.53 67.92 67.37 66.87 66.51 66.02 66.36 66.70 66.24 67.07 65.79 65.39 65.52 64.78 63.85 63.50 62.95
44.48 45.42 40.15 33.41 35.95 39.68 45.61 41.82 46.29 53.45 55.71 56.76 57.19 58.60 59.91 61.18 63.96 64.41 64.75 65.08 65.25 66.18 66.69 66.58 67.22 67.18 67.90 67.94 68.09 68.85 69.40 67.44 68.37 68.57 66.92 67.75 67.87 67.28 67.81 67.30 67.12 67.01 65.89 65.70 65.23 64.62 64.20 64.34 63.51
44.35 41.84 47.48 43.01 44.08 40.77 44.08 47.79 51.39 53.91 54.98 56.05 56.84 58.59 60.07 62.96 63.63 63.84 64.75 65.17 65.36 65.78 66.37 66.84 67.15 67.14 67.14 67.51 67.94 68.06 68.62 68.92 68.33 67.95 68.14 68.07 68.28 68.04 67.01 67.28 66.53 66.44 65.27 65.44 65.08 64.69 63.83 64.25 64.34
45.63 47.97 41.41 43.88 35.79 35.84 41.81 44.66 46.49 52.29 54.01 55.49 56.38 57.89 59.80 63.20 63.41 63.92 64.59 65.08 65.73 66.11 67.07 67.77 67.69 66.79 66.70 67.10 67.05 67.18 67.29 66.81 67.81 67.99 66.81 68.30 67.71 67.35 66.71 66.84 66.27 65.33 65.28 65.56 65.44 65.46 65.35 63.87 64.65
43.76 42.57 44.78 46.24 43.96 38.80 38.07 43.01 55.06 53.91 54.63 55.41 57.10 57.69 59.95 62.75 62.99 63.67 64.35 65.36 65.88 66.22 66.46 66.91 66.85 65.84 66.11 66.31 67.37 67.21 67.24 67.07 67.26 67.28 67.36 67.53 67.32 67.19 65.85 65.61 65.32 64.25 63.54 65.10 64.59 64.99 64.27 63.15 61.96
46.94 44.48 45.35 41.78 40.84 43.85 43.60 44.27 55.80 55.73 55.33 57.12 57.20 57.91 61.61 63.14 63.38 63.96 64.30 64.70 65.06 65.47 65.69 66.16 65.48 65.08 65.72 66.03 66.61 65.82 65.25 66.78 67.23 66.08 66.80 66.32 66.20 66.19 66.06 65.53 64.69 64.17 64.27 64.50 64.31 63.85 63.75 62.82 61.25

GFSSGP_sfc_wetblb_045.txt.gz
Wetbulb
63.81 63.80 61.32 59.95 50.21 47.38 43.54 48.96 54.32 55.63 57.52 59.76 57.35 56.37 53.92 55.09 55.83 52.36 62.49 68.28 68.90 67.47 69.53 71.51 73.33 73.37 73.10 72.83 72.31 71.97 71.60 70.88 70.06 69.25 68.31 67.64 66.92 66.49 66.30 66.25 66.17 66.14 66.00 65.94 65.86 66.02 66.25 66.41 66.60
61.10 59.57 60.37 56.35 47.55 43.17 44.77 50.75 50.04 57.08 60.22 60.96 58.63 57.46 55.84 55.56 62.21 63.13 63.67 69.91 69.32 67.52 69.16 69.81 73.49 73.31 73.16 72.99 72.57 72.20 71.93 70.95 70.07 69.52 69.00 68.50 68.08 67.59 67.27 67.03 66.79 66.82 67.03 67.14 67.11 66.95 67.08 67.19 67.40
62.91 59.19 53.37 51.09 48.57 43.68 46.24 52.56 55.69 58.86 60.88 60.33 58.44 59.78 57.99 57.93 64.08 64.03 65.81 71.00 69.46 67.64 68.32 68.83 73.44 73.17 73.16 73.29 73.02 72.53 72.18 71.48 70.62 69.76 69.61 69.22 69.08 68.74 68.39 68.24 68.14 68.18 68.49 68.39 68.37 68.61 68.47 68.26 68.31
60.30 56.88 54.00 48.58 47.81 52.26 52.43 54.73 58.19 59.28 60.51 61.78 60.78 56.86 59.39 64.41 63.22 65.70 70.86 71.19 69.98 69.17 68.23 70.94 73.39 73.29 73.39 73.29 73.22 72.82 72.50 72.10 71.58 70.66 70.44 70.14 69.90 69.82 70.47 69.36 69.31 69.28 69.56 69.62 69.89 69.94 69.39 69.18 68.97
58.07 54.62 46.78 46.13 48.42 53.33 56.10 57.31 58.69 58.09 59.01 59.70 60.57 56.45 57.40 62.32 65.13 65.34 68.09 71.48 70.12 69.56 68.03 71.10 73.34 73.59 73.72 73.87 73.47 73.10 72.77 72.53 72.21 72.15 71.28 71.17 71.23 71.46 70.97 70.12 70.08 70.20 70.35 70.35 70.59 70.39 70.42 70.42 70.08
51.81 53.24 44.91 44.55 48.81 53.20 55.23 56.79 59.05 58.51 59.43 58.84 57.48 57.05 57.10 61.55 62.25 64.08 65.28 65.47 70.25 69.72 68.64 70.66 72.89 73.54 73.62 73.82 73.54 73.22 72.80 72.55 72.30 72.38 72.25 72.08 71.96 71.96 71.41 70.79 70.86 70.96 71.31 70.73 70.05 69.88 70.55 70.01 69.94
51.75 47.73 44.92 46.90 48.69 51.28 54.47 57.11 56.23 55.96 54.66 56.60 57.91 55.49 57.26 60.04 62.09 62.96 64.51 64.58 64.84 70.01 69.72 70.29 70.82 71.93 73.74 73.59 73.27 73.09 72.74 72.37 72.37 72.39 72.35 72.35 72.30 72.30 72.18 71.56 71.36 71.24 70.80 70.50 69.62 69.43 69.18 69.23 68.82
55.33 49.66 45.31 47.58 47.95 49.67 55.68 56.67 55.58 54.34 55.82 61.11 61.06 55.61 54.30 59.55 63.26 63.06 62.25 63.67 64.10 68.92 70.59 69.85 69.99 70.11 70.36 71.23 73.73 73.48 73.11 72.78 72.46 72.61 72.56 72.39 72.54 72.37 72.18 71.40 71.70 70.77 70.67 69.92 69.31 68.95 68.69 69.21 69.47
59.63 46.54 43.35 46.32 48.60 51.15 55.88 54.25 58.47 59.24 57.49 58.53 59.76 58.54 60.62 62.95 63.28 60.71 59.12 59.26 60.48 66.28 70.13 70.08 69.77 69.77 69.55 70.29 71.93 73.45 73.46 73.21 73.05 72.78 72.83 71.66 69.57 69.04 69.63 70.49 71.06 71.22 70.60 70.13 69.67 69.01 68.82 68.43 68.14
55.13 47.20 47.55 51.51 52.82 52.48 55.04 55.95 56.85 56.92 57.18 57.12 59.04 61.13 62.06 61.09 59.52 58.63 57.71 57.51 56.33 58.03 68.65 70.07 69.78 69.53 69.45 70.31 69.58 71.10 70.84 70.56 70.78 70.32 69.50 69.24 67.62 65.56 66.87 68.92 72.08 71.96 71.44 70.63 69.87 68.87 68.13 67.31 63.50
54.79 49.52 52.12 52.77 54.50 55.61 55.30 56.27 58.59 56.83 54.76 56.53 57.04 58.89 59.70 59.68 59.27 59.16 59.02 57.65 57.27 57.98 61.81 69.65 69.72 69.68 69.36 69.10 68.78 70.20 69.92 69.57 70.06 69.03 67.57 68.11 67.53 66.24 67.81 65.29 67.69 67.47 70.04 66.24 67.75 66.22 65.25 63.21 62.45
50.94 54.39 54.62 54.44 55.83 55.12 54.58 57.40 56.69 57.11 56.50 60.02 60.07 60.92 60.56 59.18 58.34 58.59 58.22 57.88 57.37 57.31 57.81 61.72 68.85 70.09 69.56 69.31 68.33 69.49 68.91 68.70 68.33 68.57 67.40 66.56 66.94 66.16 64.85 64.45 64.30 64.13 64.45 64.07 63.59 63.45 63.87 62.83 63.06
50.44 51.88 54.64 56.71 56.37 55.92 57.35 56.04 56.03 56.11 59.06 60.07 60.13 60.22 59.10 59.12 59.16 59.59 60.19 59.46 58.19 57.56 58.43 59.97 64.77 69.15 69.31 67.67 68.25 69.26 68.70 68.20 67.36 67.56 67.87 67.91 65.98 64.39 64.52 64.30 64.12 64.12 63.88 63.94 63.97 64.65 63.75 62.96 63.37
51.86 53.25 53.33 53.82 54.03 55.33 54.58 54.94 55.72 56.88 58.67 58.28 58.27 58.17 57.99 58.67 59.09 58.91 59.11 58.20 58.31 60.17 59.79 60.46 64.73 68.10 68.23 67.61 68.08 69.18 69.04 68.73 67.82 67.87 68.30 67.60 65.41 64.59 65.01 64.94 64.43 63.75 64.15 63.31 62.86 61.89 61.79 61.44 62.42
50.28 47.79 50.05 51.60 53.49 52.55 54.86 51.51 52.61 56.45 57.74 57.30 57.13 57.78 57.74 58.42 59.87 58.68 58.77 57.94 60.30 59.81 60.04 61.09 65.13 67.31 67.94 67.42 68.26 68.09 68.56 68.72 67.70 66.49 67.42 66.46 65.45 64.93 65.27 64.12 63.62 63.91 64.10 63.46 63.05 62.51 62.67 61.79 61.83
47.73 47.34 43.05 49.07 51.56 53.94 53.66 47.33 53.62 56.62 56.32 55.95 56.69 57.35 57.58 57.64 59.19 58.96 58.76 58.68 59.20 59.93 60.83 61.86 69.98 68.44 68.57 67.18 67.38 68.84 66.64 65.34 64.32 64.30 65.76 67.20 66.13 65.75 65.30 64.34 63.18 63.97 63.69 63.09 62.18 61.89 61.50 61.61 61.30
44.13 40.10 42.19 45.96 51.81 52.05 51.47 48.41 53.59 56.02 55.77 55.18 56.08 56.49 57.18 56.64 56.81 58.05 59.76 59.41 60.04 60.64 61.03 63.34 68.25 68.42 68.40 68.50 67.95 67.58 65.56 63.98 64.48 64.99 64.90 66.37 66.82 66.75 64.79 63.33 63.17 63.87 63.14 62.78 62.28 61.64 61.09 60.30 59.61
39.05 40.80 43.33 43.44 48.61 50.55 49.15 49.06 52.26 54.22 54.51 54.64 55.39 56.20 56.82 55.95 56.07 57.62 59.02 59.79 61.46 63.21 64.10 65.01 67.79 68.22 68.64 68.73 68.26 66.31 65.74 64.15 64.08 64.32 64.13 66.18 66.14 66.82 64.81 64.07 63.97 63.74 62.80 62.02 61.73 60.92 60.80 59.99 59.65
44.23 43.73 43.15 46.25 49.53 48.31 47.39 47.74 49.85 52.73 52.43 52.73 53.94 54.07 54.46 54.90 56.58 57.72 59.29 60.47 62.64 64.43 66.54 66.15 67.45 67.86 69.18 68.09 65.70 63.53 63.09 62.87 62.77 64.16 64.58 65.58 65.63 65.63 64.06 63.38 63.21 63.30 62.34 61.83 61.47 60.58 59.80 59.14 59.77
42.47 40.57 41.05 45.95 49.06 47.58 47.16 47.04 50.55 52.16 52.25 53.36 53.95 53.59 54.65 54.43 56.57 58.39 59.46 62.45 62.44 63.92 64.78 65.21 67.30 67.41 67.06 66.64 64.74 63.94 63.37 62.77 63.26 63.69 64.50 64.38 64.22 64.61 63.69 63.29 63.54 62.96 61.73 61.49 61.15 60.34 58.54 58.80 59.54
41.32 40.24 40.45 40.88 45.87 47.30 45.54 43.06 45.87 50.11 52.54 53.96 54.88 54.84 54.91 54.90 54.73 55.42 61.00 61.23 62.24 63.56 63.83 64.48 66.74 66.39 65.98 65.31 64.89 64.74 63.90 63.29 62.32 62.59 63.25 63.64 64.62 65.05 63.80 64.06 63.19 61.99 61.71 60.84 60.84 60.62 59.71 57.55 58.32
38.02 44.57 44.14 43.77 41.87 37.31 44.15 35.72 43.65 47.51 49.61 51.91 53.46 53.03 53.88 55.06 55.92 55.26 60.98 61.24 62.03 62.92 64.07 65.58 65.94 65.41 65.68 64.36 63.64 62.15 60.87 59.04 60.29 61.37 62.42 64.12 64.56 64.32 64.61 62.96 62.87 61.83 62.08 60.89 61.29 61.90 59.67 58.21 56.11
40.85 45.51 43.71 43.46 41.18 39.86 40.86 36.37 42.63 47.16 47.09 49.15 51.78 53.70 54.35 55.06 54.43 54.71 61.15 62.77 62.94 63.82 63.80 65.09 65.21 64.43 65.13 63.99 64.29 63.07 61.91 61.96 61.48 62.16 62.02 62.90 63.30 63.40 64.13 63.22 62.06 61.81 61.43 61.05 60.75 60.09 59.73 59.28 57.53
45.12 43.46 42.72 41.92 39.59 33.36 39.11 38.86 40.09 43.04 46.11 48.03 51.16 52.43 53.35 52.93 54.58 60.80 62.57 63.26 63.28 64.15 64.59 64.72 64.25 63.90 64.34 64.51 64.03 62.28 60.94 61.33 61.31 61.06 61.05 61.62 61.57 62.41 64.10 63.55 62.04 61.80 61.04 60.37 60.53 60.05 60.04 60.16 59.95
41.16 37.48 30.48 29.85 31.18 31.20 40.46 38.96 41.99 45.63 48.94 50.46 50.87 52.32 52.73 53.87 57.13 61.04 61.49 61.94 62.54 63.26 64.19 64.03 63.63 63.52 63.57 64.28 63.20 62.34 62.00 61.48 61.12 60.71 60.52 60.91 61.07 61.14 61.96 61.73 61.38 61.63 61.13 61.38 61.27 60.45 60.09 60.50 59.22
36.75 37.61 31.78 25.42 28.60 32.54 40.81 36.88 40.79 48.59 51.30 52.06 52.98 52.43 53.01 53.22 60.24 60.65 61.21 61.57 62.42 63.50 63.63 63.31 63.61 63.26 63.42 62.87 62.39 62.15 62.87 61.59 61.65 61.54 61.66 61.65 61.57 61.68 62.34 61.87 62.20 62.19 62.37 61.31 60.53 60.91 61.13 60.46 60.17
36.35 33.76 40.59 35.10 37.76 33.44 36.63 41.36 45.53 47.85 48.45 50.38 51.24 52.45 56.32 57.81 59.97 60.29 60.93 61.69 62.74 62.87 62.56 62.98 63.40 63.11 63.34 62.70 62.00 61.94 62.20 62.18 61.46 61.96 62.13 61.93 62.71 63.58 62.81 62.79 62.34 62.23 61.62 61.06 60.07 60.60 60.32 60.28 60.49
40.79 41.04 34.12 35.86 28.15 27.73 35.37 38.04 38.82 44.43 47.31 49.47 50.96 51.82 56.80 58.96 59.47 60.17 60.57 61.37 62.54 63.08 62.62 63.15 63.38 62.81 62.39 62.20 61.83 61.88 61.39 62.29 61.86 61.91 61.66 63.12 62.88 63.09 62.54 62.48 61.97 61.59 61.15 61.34 61.42 60.36 61.03 59.68 60.03
37.47 35.42 36.26 36.43 36.29 31.26 30.81 35.31 45.13 48.83 50.16 49.04 51.34 52.57 57.78 58.32 59.36 60.12 60.82 61.87 62.53 62.83 63.31 63.09 62.71 61.93 61.57 61.26 61.30 62.20 62.04 61.87 61.80 61.41 62.28 62.80 62.21 63.13 62.41 62.38 61.53 61.25 61.48 61.41 60.45 60.14 61.37 60.62 60.64
41.19 38.12 37.18 32.64 32.26 37.09 35.29 36.78 46.84 49.47 49.64 51.50 51.92 53.00 58.33 59.06 59.91 60.45 61.15 61.72 61.87 61.59 62.82 62.12 61.14 60.90 61.32 61.49 61.87 62.09 62.91 61.90 61.57 61.70 62.17 62.97 62.03 62.63 62.57 62.52 62.99 62.75 62.76 61.52 60.31 60.51 61.45 61.36 60.24

GFSSGP_sfc_wetblb_048.txt.gz
Wetbulb
63.94 62.10 60.43 59.21 48.98 46.18 42.74 47.36 53.26 52.34 55.22 58.48 58.50 54.54 53.41 54.37 54.50 50.52 60.67 67.16 67.37 66.30 69.75 71.83 73.53 73.35 72.98 72.83 72.21 71.86 71.07 70.45 70.15 69.28 67.99 67.11 66.81 66.57 66.23 66.31 65.98 65.95 65.94 65.89 65.92 65.90 65.99 66.01 66.12
58.99 59.14 59.28 55.39 46.41 41.93 42.14 48.89 49.67 52.40 58.57 60.07 58.84 57.44 56.52 57.32 61.61 61.59 64.30 68.20 67.05 66.70 68.58 69.76 73.36 73.33 73.35 73.04 72.62 71.97 71.53 70.87 70.19 69.45 68.45 67.66 67.24 67.00 66.55 66.60 66.55 66.68 66.87 66.97 66.76 66.84 66.76 66.97 66.92
61.00 58.45 52.72 50.65 46.28 41.55 43.57 51.25 54.19 58.34 59.75 58.51 56.93 59.90 57.62 58.46 63.31 62.76 65.49 68.10 66.55 65.96 68.04 68.88 73.49 73.34 73.41 73.16 72.74 72.37 71.83 71.26 70.42 69.59 68.99 68.64 68.19 67.99 67.72 67.43 67.38 67.37 67.64 67.94 67.99 68.04 68.43 68.27 68.08
58.76 55.22 52.67 46.82 46.13 49.92 51.24 53.11 55.65 57.91 59.11 59.21 59.68 57.57 58.45 63.01 63.74 64.62 69.13 67.84 65.81 65.60 67.71 70.42 73.56 73.44 73.39 73.21 72.94 72.37 72.13 71.61 71.13 70.56 69.94 69.39 69.14 68.94 68.85 68.74 68.77 68.93 69.00 69.34 69.53 69.48 69.60 69.37 69.03
56.30 51.80 44.65 44.01 46.74 51.53 54.65 56.10 55.83 56.26 57.30 58.47 59.85 56.21 56.92 62.06 66.21 69.86 69.11 68.23 65.65 65.59 66.06 69.32 73.29 73.39 73.59 73.46 73.24 72.72 72.50 72.13 71.90 71.70 70.97 70.54 70.38 69.95 69.75 69.75 69.54 69.43 69.67 69.83 70.20 70.36 70.56 70.23 70.43
50.43 49.86 42.10 41.97 46.87 51.61 53.55 54.74 55.08 57.69 58.61 58.23 55.88 55.97 55.66 61.83 66.28 69.03 69.68 68.09 67.69 66.01 65.16 67.88 72.97 73.27 73.24 73.41 73.04 72.81 72.37 72.15 72.05 71.98 71.93 71.76 71.63 71.11 70.37 70.22 70.12 70.44 70.59 70.86 71.06 70.38 70.74 70.70 69.94
50.14 45.76 42.11 44.83 47.53 49.39 52.70 55.70 54.41 54.92 57.17 56.17 57.04 54.53 57.67 58.81 61.95 68.08 69.35 69.13 68.89 67.80 65.75 67.17 69.45 71.68 73.41 73.07 73.04 72.76 72.34 72.14 72.02 71.89 71.92 72.14 72.17 72.02 71.43 71.16 70.72 70.84 70.94 70.82 70.62 70.20 70.11 69.74 69.64
53.15 48.42 43.03 45.36 46.58 47.38 53.90 54.14 54.13 54.11 55.05 59.82 59.93 54.34 52.95 58.57 61.70 63.00 65.75 65.77 67.58 67.86 66.59 67.52 68.14 69.02 69.79 70.74 73.34 73.06 72.61 72.36 72.11 72.21 72.35 72.28 72.26 72.19 71.93 71.74 71.69 70.87 70.97 70.57 70.25 69.91 70.26 69.89 69.70
56.02 45.43 41.65 45.10 47.35 49.30 53.46 51.96 56.50 58.53 56.65 57.73 58.87 57.73 59.38 61.52 61.69 59.07 57.74 58.71 60.45 66.36 67.00 67.84 67.87 67.17 68.50 69.10 70.96 72.91 72.94 72.76 72.36 72.06 72.38 71.33 69.02 69.13 70.17 70.74 71.09 70.97 70.99 70.87 70.94 70.45 70.03 69.35 68.47
51.06 46.29 46.78 50.62 51.32 50.16 52.66 53.00 54.63 55.88 55.68 55.95 57.44 60.39 60.71 61.94 60.09 58.87 58.08 57.61 59.06 64.68 67.35 67.62 67.94 67.72 67.41 68.77 68.93 70.34 69.92 69.78 69.91 69.71 69.54 69.52 68.01 67.07 68.96 69.69 71.06 71.29 71.70 71.46 70.92 70.45 69.13 68.08 63.88
52.04 48.97 53.10 53.81 53.85 53.92 53.02 53.62 55.70 55.31 53.78 55.52 55.86 58.28 59.27 58.83 58.62 58.02 57.66 57.84 57.11 62.32 67.18 68.08 68.13 68.17 67.52 67.46 67.95 69.62 69.57 69.01 69.47 69.26 68.80 68.83 68.30 67.25 66.94 65.28 65.76 68.26 71.38 67.98 68.83 67.17 66.19 64.05 62.60
49.23 54.48 55.31 56.05 56.46 54.54 52.63 54.68 53.51 54.61 55.44 58.92 59.50 59.79 59.30 58.00 57.53 57.19 58.32 57.54 57.79 56.97 63.89 68.26 68.07 67.87 67.84 67.72 67.54 68.12 68.64 68.50 68.70 69.05 68.01 68.04 67.13 64.81 64.53 65.13 64.47 65.49 65.92 65.02 64.24 63.96 63.84 63.31 62.58
49.57 51.51 54.30 55.37 55.69 55.44 55.36 53.54 53.41 54.49 58.06 59.59 58.96 58.78 58.16 57.77 57.53 57.95 58.41 58.01 57.42 56.83 56.19 65.75 67.96 67.91 67.91 66.92 67.26 67.39 67.93 67.71 67.77 68.35 67.63 67.38 65.83 64.93 64.61 63.32 63.11 63.46 63.37 63.60 62.81 62.60 63.76 63.50 62.05
47.85 50.30 51.12 52.25 51.91 53.80 53.56 54.04 55.15 56.23 58.32 57.72 57.88 56.33 56.15 56.60 57.10 56.94 57.14 57.54 57.24 56.83 57.00 58.15 66.78 67.88 67.89 67.55 66.56 67.43 67.87 67.37 66.87 66.81 67.25 66.75 66.01 65.22 63.59 63.57 63.44 62.81 62.67 63.15 62.59 62.26 61.94 61.53 62.13
47.07 43.92 47.22 48.48 49.12 49.18 52.49 49.53 50.95 55.54 56.59 55.73 56.15 56.14 56.23 56.35 56.92 56.98 57.98 57.47 57.28 57.62 58.91 57.14 61.35 65.95 67.62 67.43 66.27 67.66 67.87 67.36 66.35 66.35 66.72 66.98 65.85 64.68 63.94 63.11 63.24 62.80 63.13 63.58 62.74 61.59 62.21 60.77 61.36
43.97 43.70 40.60 47.20 49.02 49.93 49.98 44.35 52.18 54.71 54.28 54.09 54.82 55.88 56.65 57.25 57.76 58.32 57.94 56.84 56.82 57.88 57.56 57.95 63.99 64.72 65.07 66.13 66.44 67.62 67.46 67.39 66.63 66.17 66.96 67.22 66.10 64.49 63.79 62.83 62.33 62.76 62.74 62.29 61.46 61.20 59.94 60.01 60.39
40.00 38.50 40.49 44.11 49.72 49.29 48.79 45.78 51.54 54.69 53.52 52.25 53.59 54.93 55.92 56.70 56.57 56.22 57.27 57.15 57.04 57.49 57.63 58.82 64.53 65.02 64.36 65.69 66.82 66.15 64.56 64.78 63.41 64.23 65.63 66.10 65.78 65.10 63.47 63.08 62.53 62.83 62.35 61.61 60.67 60.39 59.94 58.90 59.31
35.92 37.72 41.10 41.50 46.46 48.23 47.07 46.66 50.37 52.48 52.78 52.54 53.47 54.16 54.63 55.62 55.89 57.26 56.66 57.92 57.33 57.17 58.40 61.88 65.29 65.46 65.56 66.27 65.10 64.09 62.34 62.25 63.26 63.55 64.38 65.47 64.75 65.18 63.66 62.76 62.16 62.61 61.51 60.31 60.40 60.07 59.79 59.05 58.81
42.28 41.25 40.10 43.70 47.54 46.40 45.45 46.01 48.92 51.02 50.13 50.48 51.99 52.54 53.05 54.29 55.90 57.07 57.56 57.19 61.08 61.17 60.23 63.42 65.46 65.83 67.25 66.49 63.59 62.57 61.51 61.15 61.88 62.67 64.05 64.79 64.47 65.07 63.34 62.46 62.33 62.05 61.59 60.94 60.34 59.45 58.83 58.09 58.18
39.73 38.05 37.78 41.73 45.32 45.43 45.20 44.84 48.39 50.25 50.38 50.89 51.45 51.69 51.64 52.17 54.07 55.53 55.66 58.83 61.06 62.80 63.24 64.80 65.50 66.17 66.20 65.08 63.27 62.38 62.16 61.36 61.50 62.20 62.36 64.34 64.45 64.49 63.21 62.25 61.98 61.76 61.13 60.21 59.97 59.29 57.38 57.64 58.25
38.50 37.19 38.02 38.50 42.50 43.59 41.89 39.94 42.80 47.20 48.36 49.87 50.89 52.59 52.66 52.53 53.71 54.34 55.96 58.92 61.25 62.42 63.01 65.26 65.70 65.77 65.44 64.38 63.39 62.51 62.10 61.78 61.06 61.38 61.53 62.55 63.50 63.55 63.08 62.41 62.03 61.35 60.55 59.59 59.39 59.41 59.73 57.54 57.76
34.89 41.86 41.22 40.45 38.92 34.01 42.21 32.79 40.86 44.72 46.18 48.01 49.12 49.97 51.15 53.11 54.04 54.25 56.07 58.80 61.02 61.68 63.19 65.36 65.32 65.44 64.86 63.74 62.97 61.58 59.98 58.62 59.15 60.25 61.16 61.83 63.57 63.48 63.35 62.86 62.51 61.04 60.17 59.56 59.63 60.33 58.69 56.82 55.27
37.29 42.83 41.56 41.21 38.00 37.04 38.13 33.32 39.80 42.47 43.44 45.76 48.05 50.23 51.89 53.02 52.76 53.41 56.63 60.11 61.19 62.31 64.03 64.79 64.15 64.04 63.22 62.86 62.23 60.79 59.01 59.24 60.16 60.52 60.74 61.48 61.99 63.06 63.61 62.21 61.21 60.50 60.19 59.74 59.70 59.24 58.44 57.76 55.84
40.85 39.94 39.58 39.37 35.60 30.03 35.78 34.85 37.28 40.30 42.86 44.95 47.72 50.03 51.77 52.04 52.04 53.55 59.35 61.31 61.63 63.27 64.07 64.00 62.99 62.74 62.85 62.61 62.07 60.67 59.97 59.75 59.75 59.57 60.20 60.32 60.51 61.06 61.83 62.73 60.83 60.66 59.75 59.69 59.27 58.87 59.00 58.56 57.92
36.21 30.74 25.96 24.33 26.37 28.62 37.93 35.14 38.45 42.34 45.10 46.12 46.81 48.85 50.63 51.06 55.70 58.73 60.11 60.71 61.83 62.86 63.06 62.78 62.58 61.35 62.76 62.09 61.47 61.09 60.30 60.40 59.70 59.23 59.70 59.29 59.48 59.90 60.95 61.01 60.32 60.35 60.40 60.06 59.73 59.57 59.41 58.82 58.52
32.78 31.75 26.51 21.53 23.50 29.49 37.98 32.57 37.98 45.50 48.08 48.54 49.35 50.52 51.29 48.10 57.00 59.04 60.32 61.26 62.02 62.72 62.53 62.56 62.41 60.99 61.86 60.96 60.49 61.21 60.45 59.91 60.05 60.09 60.12 59.92 59.83 60.27 60.93 60.46 60.52 60.85 60.96 60.19 59.88 58.85 59.09 59.49 59.50
33.93 30.46 34.45 29.73 33.62 28.33 33.76 37.98 43.33 45.85 46.05 47.24 47.54 48.74 48.93 52.26 57.21 59.04 59.81 61.20 62.35 62.36 61.89 62.70 61.88 61.26 61.03 60.90 60.70 60.68 60.72 59.84 60.10 60.45 60.75 61.09 60.37 61.86 61.18 61.22 60.73 60.82 60.68 60.47 58.75 58.84 59.37 59.47 59.05
37.24 38.79 28.71 28.48 23.56 23.70 30.77 34.05 36.36 40.84 43.16 45.73 46.04 47.06 52.69 56.34 57.82 58.82 60.08 61.52 62.21 61.95 62.39 62.41 62.06 61.50 60.87 60.44 60.25 60.63 60.50 60.85 60.46 60.29 60.21 61.18 61.04 62.05 62.11 61.28 60.80 60.35 60.09 59.95 59.35 58.83 60.23 58.70 59.68
34.48 32.39 32.73 31.44 30.23 27.91 25.97 31.77 40.70 42.27 43.99 45.28 48.26 49.12 55.70 57.00 58.14 58.99 60.50 61.45 61.64 61.77 62.55 62.15 61.84 60.99 60.34 59.91 59.60 59.87 60.25 60.89 60.52 60.38 61.09 61.27 61.00 61.36 61.59 61.76 60.63 59.87 59.76 60.17 59.34 58.36 60.74 60.40 60.28
38.22 34.99 34.06 26.81 27.16 31.06 33.04 33.35 45.04 43.86 44.98 47.31 48.08 55.56 56.90 58.19 58.43 59.37 60.43 60.86 61.06 61.39 61.87 61.68 60.87 60.64 59.42 59.76 60.29 60.27 60.47 60.18 59.73 60.43 61.05 61.39 60.90 61.35 61.51 61.33 61.07 61.58 62.29 60.04 59.03 59.94 61.58 60.02 58.62